GEFSNE_prec_meanprecacc_006.txt.gz
Total_Precipitation_Accumulation
0.06 0.08 0.08 0.08 0.09 0.11 0.12 0.13 0.16 0.15 0.15 0.18 0.22 0.21 0.18 0.09 0.07 0.06 0.02 0.00 0.00 0.00 0.00 0.00 0.00 0.00 0.00 0.00 0.01 0.02 0.03 0.04 0.06 0.12 0.24 0.34 0.39 0.41
0.09 0.10 0.10 0.09 0.09 0.08 0.08 0.12 0.19 0.21 0.22 0.21 0.22 0.19 0.14 0.05 0.01 0.01 0.00 0.00 0.00 0.00 0.00 0.00 0.00 0.00 0.00 0.00 0.00 0.00 0.00 0.00 0.00 0.01 0.02 0.06 0.11 0.20
0.05 0.06 0.07 0.07 0.08 0.10 0.13 0.17 0.19 0.23 0.24 0.18 0.17 0.18 0.11 0.04 0.01 0.00 0.00 0.00 0.00 0.01 0.01 0.01 0.00 0.00 0.00 0.00 0.00 0.00 0.00 0.00 0.00 0.00 0.00 0.00 0.00 0.01
0.02 0.04 0.05 0.06 0.07 0.13 0.19 0.20 0.20 0.24 0.23 0.18 0.15 0.15 0.11 0.07 0.01 0.00 0.00 0.00 0.00 0.01 0.01 0.01 0.01 0.01 0.00 0.00 0.00 0.00 0.00 0.00 0.00 0.00 0.00 0.00 0.00 0.00
0.02 0.03 0.04 0.05 0.08 0.16 0.23 0.21 0.20 0.21 0.20 0.19 0.18 0.13 0.12 0.06 0.01 0.00 0.00 0.00 0.00 0.00 0.00 0.00 0.00 0.00 0.00 0.00 0.00 0.00 0.00 0.00 0.00 0.00 0.00 0.00 0.00 0.00
0.03 0.04 0.04 0.05 0.06 0.09 0.19 0.28 0.28 0.25 0.26 0.24 0.22 0.17 0.11 0.06 0.02 0.01 0.01 0.00 0.00 0.00 0.00 0.00 0.00 0.00 0.00 0.00 0.00 0.00 0.00 0.00 0.00 0.00 0.00 0.00 0.00 0.00
0.01 0.03 0.03 0.03 0.05 0.06 0.09 0.18 0.24 0.26 0.29 0.24 0.18 0.14 0.07 0.04 0.02 0.01 0.01 0.00 0.00 0.00 0.00 0.00 0.00 0.00 0.00 0.00 0.00 0.00 0.00 0.00 0.00 0.00 0.00 0.00 0.00 0.00
0.01 0.03 0.02 0.01 0.01 0.02 0.02 0.05 0.08 0.11 0.13 0.11 0.07 0.05 0.03 0.02 0.01 0.00 0.00 0.00 0.00 0.00 0.00 0.00 0.00 0.00 0.00 0.00 0.00 0.00 0.00 0.00 0.00 0.00 0.00 0.00 0.00 0.00
0.00 0.00 0.00 0.00 0.00 0.00 0.00 0.00 0.01 0.02 0.02 0.02 0.02 0.01 0.01 0.01 0.01 0.01 0.01 0.00 0.00 0.00 0.00 0.00 0.00 0.00 0.00 0.00 0.00 0.00 0.00 0.00 0.00 0.00 0.00 0.00 0.00 0.00
0.00 0.00 0.00 0.00 0.00 0.00 0.00 0.00 0.00 0.00 0.00 0.00 0.00 0.00 0.00 0.00 0.00 0.00 0.01 0.00 0.00 0.00 0.00 0.01 0.01 0.01 0.01 0.00 0.00 0.00 0.00 0.00 0.00 0.00 0.00 0.00 0.00 0.00
0.00 0.00 0.00 0.00 0.00 0.00 0.00 0.00 0.00 0.00 0.00 0.00 0.00 0.00 0.00 0.00 0.00 0.00 0.00 0.00 0.00 0.00 0.00 0.00 0.00 0.02 0.04 0.02 0.00 0.00 0.00 0.00 0.00 0.00 0.00 0.00 0.00 0.00
0.00 0.00 0.00 0.00 0.00 0.00 0.00 0.00 0.00 0.00 0.00 0.00 0.00 0.00 0.00 0.00 0.00 0.00 0.00 0.00 0.00 0.00 0.00 0.00 0.00 0.01 0.04 0.03 0.01 0.00 0.00 0.00 0.00 0.00 0.00 0.00 0.00 0.00
0.00 0.00 0.00 0.00 0.00 0.00 0.00 0.00 0.00 0.00 0.00 0.00 0.00 0.00 0.00 0.00 0.00 0.00 0.00 0.00 0.00 0.00 0.00 0.00 0.00 0.00 0.00 0.00 0.00 0.00 0.00 0.00 0.00 0.00 0.00 0.00 0.00 0.00
0.00 0.00 0.00 0.00 0.00 0.00 0.00 0.00 0.00 0.00 0.00 0.00 0.00 0.00 0.00 0.00 0.00 0.00 0.00 0.00 0.00 0.00 0.00 0.00 0.00 0.00 0.00 0.00 0.00 0.00 0.00 0.00 0.00 0.00 0.00 0.01 0.01 0.00
0.00 0.00 0.00 0.00 0.00 0.00 0.00 0.00 0.00 0.00 0.00 0.00 0.00 0.00 0.00 0.00 0.00 0.00 0.00 0.00 0.00 0.00 0.00 0.00 0.00 0.00 0.00 0.00 0.00 0.00 0.00 0.00 0.00 0.00 0.00 0.01 0.01 0.00
0.00 0.00 0.00 0.00 0.00 0.00 0.00 0.00 0.00 0.00 0.00 0.00 0.00 0.00 0.00 0.00 0.00 0.00 0.00 0.00 0.00 0.00 0.00 0.00 0.00 0.00 0.00 0.00 0.00 0.00 0.00 0.00 0.00 0.00 0.00 0.00 0.00 0.00
0.00 0.00 0.00 0.00 0.00 0.00 0.00 0.00 0.00 0.00 0.00 0.00 0.00 0.00 0.00 0.00 0.00 0.00 0.00 0.00 0.00 0.00 0.00 0.00 0.00 0.00 0.00 0.00 0.00 0.00 0.00 0.00 0.00 0.00 0.00 0.00 0.00 0.00
0.00 0.00 0.00 0.00 0.00 0.00 0.00 0.00 0.00 0.00 0.00 0.00 0.00 0.00 0.00 0.00 0.00 0.00 0.00 0.00 0.00 0.00 0.00 0.00 0.00 0.00 0.00 0.00 0.00 0.00 0.00 0.00 0.00 0.00 0.00 0.00 0.00 0.00
0.00 0.00 0.00 0.00 0.00 0.00 0.00 0.00 0.00 0.00 0.00 0.00 0.00 0.00 0.00 0.00 0.00 0.00 0.00 0.00 0.00 0.00 0.00 0.00 0.00 0.00 0.00 0.00 0.00 0.00 0.00 0.00 0.00 0.00 0.00 0.00 0.00 0.00
0.00 0.00 0.00 0.00 0.00 0.00 0.00 0.00 0.00 0.00 0.00 0.00 0.00 0.00 0.00 0.00 0.00 0.00 0.00 0.00 0.00 0.00 0.00 0.00 0.00 0.00 0.00 0.00 0.00 0.00 0.00 0.00 0.00 0.00 0.00 0.00 0.00 0.00
0.00 0.00 0.00 0.00 0.00 0.00 0.00 0.00 0.00 0.00 0.00 0.00 0.00 0.00 0.00 0.00 0.00 0.00 0.00 0.00 0.00 0.00 0.00 0.00 0.00 0.00 0.00 0.00 0.00 0.00 0.00 0.00 0.00 0.00 0.00 0.00 0.00 0.00
0.00 0.00 0.00 0.00 0.00 0.00 0.00 0.00 0.00 0.00 0.00 0.00 0.00 0.00 0.00 0.00 0.00 0.00 0.00 0.00 0.00 0.00 0.00 0.00 0.00 0.00 0.00 0.00 0.00 0.00 0.00 0.00 0.00 0.00 0.00 0.00 0.00 0.00
0.00 0.00 0.00 0.00 0.00 0.00 0.00 0.00 0.00 0.00 0.00 0.00 0.00 0.00 0.00 0.00 0.00 0.00 0.00 0.00 0.00 0.00 0.00 0.00 0.00 0.00 0.00 0.00 0.00 0.00 0.00 0.00 0.00 0.00 0.00 0.00 0.00 0.00

GEFSNE_prec_meanprecacc_012.txt.gz
Total_Precipitation_Accumulation
0.11 0.15 0.17 0.17 0.18 0.21 0.23 0.28 0.33 0.31 0.36 0.45 0.47 0.47 0.44 0.27 0.21 0.13 0.04 0.01 0.00 0.00 0.00 0.00 0.00 0.00 0.00 0.01 0.04 0.07 0.11 0.16 0.24 0.36 0.53 0.69 0.80 0.85
0.16 0.18 0.22 0.22 0.23 0.25 0.26 0.33 0.42 0.41 0.44 0.49 0.47 0.42 0.38 0.18 0.11 0.06 0.01 0.00 0.00 0.00 0.00 0.00 0.00 0.00 0.00 0.00 0.00 0.01 0.02 0.04 0.06 0.10 0.15 0.24 0.38 0.56
0.10 0.14 0.19 0.23 0.26 0.28 0.35 0.40 0.44 0.50 0.50 0.43 0.42 0.43 0.36 0.20 0.09 0.04 0.01 0.00 0.00 0.01 0.01 0.01 0.00 0.00 0.00 0.00 0.00 0.00 0.00 0.00 0.01 0.02 0.03 0.04 0.06 0.09
0.05 0.09 0.12 0.14 0.20 0.26 0.34 0.39 0.44 0.54 0.55 0.40 0.34 0.34 0.31 0.22 0.11 0.07 0.02 0.01 0.01 0.01 0.01 0.01 0.01 0.01 0.00 0.00 0.00 0.00 0.00 0.00 0.00 0.00 0.00 0.00 0.01 0.01
0.04 0.07 0.08 0.11 0.16 0.21 0.30 0.33 0.37 0.52 0.57 0.47 0.37 0.30 0.29 0.20 0.13 0.08 0.04 0.02 0.01 0.00 0.00 0.00 0.00 0.00 0.00 0.00 0.00 0.00 0.00 0.00 0.00 0.00 0.00 0.00 0.00 0.00
0.06 0.07 0.08 0.09 0.11 0.11 0.21 0.33 0.39 0.46 0.54 0.52 0.47 0.41 0.32 0.24 0.19 0.14 0.08 0.04 0.01 0.00 0.00 0.00 0.00 0.00 0.00 0.00 0.00 0.00 0.00 0.00 0.00 0.00 0.00 0.00 0.00 0.00
0.03 0.06 0.04 0.05 0.06 0.07 0.10 0.22 0.35 0.49 0.66 0.69 0.62 0.58 0.46 0.34 0.27 0.19 0.13 0.07 0.02 0.01 0.01 0.01 0.02 0.01 0.00 0.00 0.00 0.00 0.00 0.00 0.00 0.00 0.00 0.00 0.00 0.00
0.03 0.06 0.05 0.02 0.01 0.02 0.03 0.09 0.18 0.32 0.50 0.66 0.70 0.65 0.56 0.48 0.36 0.23 0.14 0.07 0.04 0.05 0.04 0.04 0.02 0.01 0.00 0.00 0.00 0.00 0.00 0.00 0.00 0.00 0.00 0.00 0.00 0.00
0.02 0.03 0.03 0.02 0.01 0.00 0.01 0.02 0.05 0.12 0.23 0.36 0.46 0.48 0.49 0.45 0.32 0.19 0.13 0.08 0.05 0.04 0.05 0.03 0.01 0.00 0.00 0.00 0.00 0.00 0.00 0.00 0.00 0.00 0.00 0.00 0.00 0.00
0.01 0.01 0.03 0.04 0.03 0.01 0.01 0.01 0.01 0.03 0.08 0.14 0.19 0.22 0.22 0.20 0.16 0.13 0.10 0.06 0.04 0.03 0.02 0.03 0.02 0.01 0.01 0.00 0.00 0.00 0.00 0.00 0.00 0.00 0.00 0.00 0.00 0.00
0.01 0.01 0.02 0.03 0.01 0.00 0.01 0.01 0.01 0.01 0.02 0.03 0.04 0.05 0.04 0.03 0.04 0.04 0.02 0.01 0.01 0.01 0.01 0.02 0.02 0.05 0.06 0.03 0.00 0.00 0.00 0.00 0.00 0.00 0.00 0.00 0.00 0.00
0.03 0.02 0.01 0.01 0.00 0.01 0.02 0.01 0.00 0.00 0.00 0.01 0.01 0.01 0.01 0.00 0.00 0.01 0.01 0.00 0.00 0.00 0.00 0.01 0.01 0.04 0.08 0.05 0.01 0.00 0.00 0.00 0.00 0.00 0.00 0.00 0.00 0.00
0.03 0.02 0.01 0.00 0.00 0.00 0.01 0.01 0.00 0.00 0.00 0.00 0.00 0.00 0.00 0.00 0.00 0.00 0.00 0.00 0.00 0.00 0.00 0.00 0.00 0.01 0.02 0.01 0.00 0.00 0.00 0.00 0.00 0.00 0.00 0.00 0.00 0.00
0.05 0.02 0.00 0.00 0.00 0.00 0.00 0.00 0.00 0.00 0.00 0.00 0.00 0.00 0.00 0.00 0.00 0.00 0.00 0.00 0.00 0.00 0.00 0.00 0.00 0.00 0.00 0.00 0.00 0.00 0.00 0.00 0.00 0.00 0.00 0.01 0.01 0.00
0.07 0.03 0.01 0.00 0.00 0.00 0.00 0.00 0.00 0.00 0.00 0.00 0.00 0.00 0.00 0.00 0.00 0.00 0.00 0.00 0.00 0.00 0.00 0.00 0.00 0.00 0.00 0.00 0.00 0.00 0.00 0.00 0.00 0.00 0.00 0.01 0.01 0.00
0.11 0.04 0.01 0.00 0.00 0.00 0.00 0.00 0.00 0.00 0.00 0.00 0.00 0.00 0.00 0.00 0.00 0.00 0.00 0.00 0.00 0.00 0.00 0.00 0.00 0.00 0.00 0.00 0.00 0.00 0.00 0.00 0.00 0.00 0.00 0.00 0.00 0.00
0.14 0.06 0.01 0.00 0.00 0.00 0.00 0.00 0.00 0.00 0.00 0.00 0.00 0.00 0.00 0.00 0.00 0.00 0.00 0.00 0.00 0.00 0.00 0.00 0.00 0.00 0.00 0.00 0.00 0.00 0.00 0.00 0.00 0.00 0.00 0.00 0.00 0.00
0.10 0.05 0.01 0.00 0.00 0.00 0.00 0.00 0.00 0.00 0.00 0.00 0.00 0.00 0.00 0.00 0.00 0.00 0.00 0.00 0.00 0.00 0.00 0.00 0.00 0.00 0.00 0.00 0.00 0.00 0.00 0.00 0.00 0.00 0.00 0.00 0.00 0.00
0.03 0.01 0.00 0.00 0.00 0.00 0.00 0.00 0.00 0.00 0.00 0.00 0.00 0.00 0.00 0.00 0.00 0.00 0.00 0.00 0.00 0.00 0.00 0.00 0.00 0.00 0.00 0.00 0.00 0.00 0.00 0.00 0.00 0.00 0.00 0.00 0.00 0.00
0.01 0.00 0.00 0.00 0.00 0.00 0.00 0.00 0.00 0.00 0.00 0.00 0.00 0.00 0.00 0.00 0.00 0.00 0.00 0.00 0.00 0.00 0.00 0.00 0.00 0.00 0.00 0.00 0.00 0.00 0.00 0.00 0.00 0.00 0.00 0.00 0.00 0.00
0.01 0.00 0.00 0.00 0.00 0.00 0.00 0.00 0.00 0.00 0.00 0.00 0.00 0.00 0.00 0.00 0.00 0.00 0.00 0.00 0.00 0.00 0.00 0.00 0.00 0.00 0.00 0.00 0.00 0.00 0.00 0.00 0.00 0.00 0.00 0.00 0.00 0.00
0.01 0.00 0.00 0.00 0.00 0.00 0.00 0.00 0.00 0.00 0.00 0.00 0.00 0.00 0.00 0.00 0.00 0.00 0.00 0.00 0.00 0.00 0.00 0.00 0.00 0.00 0.00 0.00 0.00 0.00 0.00 0.00 0.00 0.00 0.00 0.00 0.00 0.00
0.00 0.00 0.00 0.00 0.00 0.00 0.00 0.00 0.00 0.00 0.00 0.00 0.00 0.00 0.00 0.00 0.00 0.00 0.00 0.00 0.00 0.00 0.00 0.00 0.00 0.00 0.00 0.00 0.00 0.00 0.00 0.00 0.00 0.00 0.00 0.00 0.00 0.00

GEFSNE_prec_meanprecacc_018.txt.gz
Total_Precipitation_Accumulation
0.11 0.15 0.17 0.17 0.19 0.22 0.24 0.30 0.35 0.32 0.36 0.47 0.53 0.61 0.71 0.64 0.58 0.45 0.27 0.17 0.11 0.08 0.06 0.04 0.03 0.02 0.01 0.01 0.04 0.07 0.12 0.17 0.25 0.38 0.57 0.75 0.88 0.95
0.16 0.19 0.22 0.22 0.23 0.26 0.27 0.35 0.45 0.43 0.45 0.51 0.54 0.55 0.54 0.40 0.36 0.30 0.19 0.11 0.06 0.04 0.02 0.01 0.01 0.00 0.00 0.00 0.00 0.01 0.02 0.04 0.07 0.11 0.17 0.27 0.43 0.66
0.10 0.14 0.19 0.23 0.26 0.29 0.36 0.42 0.45 0.52 0.52 0.46 0.51 0.55 0.48 0.32 0.22 0.18 0.12 0.07 0.03 0.03 0.02 0.01 0.01 0.00 0.00 0.00 0.00 0.00 0.00 0.00 0.01 0.02 0.03 0.05 0.08 0.14
0.05 0.09 0.12 0.14 0.20 0.26 0.34 0.39 0.45 0.57 0.59 0.44 0.43 0.47 0.42 0.31 0.20 0.16 0.09 0.04 0.02 0.02 0.02 0.01 0.01 0.01 0.00 0.00 0.00 0.00 0.00 0.00 0.00 0.00 0.00 0.01 0.01 0.02
0.06 0.08 0.08 0.11 0.16 0.21 0.30 0.33 0.38 0.55 0.63 0.54 0.47 0.44 0.42 0.29 0.20 0.15 0.08 0.04 0.02 0.01 0.01 0.00 0.00 0.00 0.00 0.00 0.00 0.00 0.00 0.00 0.00 0.00 0.00 0.00 0.00 0.00
0.09 0.09 0.08 0.10 0.11 0.11 0.21 0.33 0.40 0.48 0.58 0.58 0.58 0.56 0.45 0.33 0.27 0.20 0.13 0.06 0.03 0.01 0.00 0.00 0.00 0.00 0.00 0.00 0.00 0.00 0.00 0.00 0.00 0.00 0.00 0.00 0.00 0.00
0.07 0.09 0.06 0.05 0.06 0.07 0.10 0.22 0.35 0.51 0.68 0.75 0.73 0.75 0.62 0.46 0.35 0.25 0.18 0.11 0.05 0.02 0.02 0.02 0.02 0.01 0.00 0.00 0.00 0.00 0.00 0.00 0.00 0.00 0.00 0.00 0.00 0.00
0.07 0.09 0.07 0.02 0.01 0.02 0.03 0.09 0.19 0.33 0.52 0.71 0.81 0.85 0.77 0.63 0.46 0.31 0.20 0.10 0.08 0.06 0.05 0.04 0.02 0.01 0.00 0.00 0.00 0.00 0.00 0.00 0.00 0.00 0.00 0.00 0.00 0.00
0.07 0.07 0.06 0.03 0.02 0.00 0.01 0.02 0.05 0.13 0.25 0.41 0.56 0.63 0.67 0.64 0.48 0.33 0.21 0.13 0.08 0.07 0.06 0.03 0.01 0.00 0.00 0.00 0.00 0.00 0.00 0.00 0.00 0.00 0.00 0.00 0.00 0.00
0.08 0.07 0.07 0.06 0.03 0.01 0.01 0.01 0.02 0.04 0.10 0.18 0.28 0.37 0.41 0.39 0.32 0.27 0.20 0.13 0.09 0.06 0.04 0.04 0.02 0.01 0.01 0.00 0.00 0.00 0.00 0.00 0.00 0.00 0.00 0.00 0.00 0.00
0.10 0.09 0.08 0.06 0.02 0.01 0.01 0.01 0.01 0.02 0.04 0.07 0.13 0.19 0.22 0.19 0.15 0.13 0.11 0.07 0.06 0.04 0.02 0.02 0.02 0.05 0.06 0.03 0.00 0.00 0.00 0.00 0.00 0.00 0.00 0.00 0.00 0.00
0.14 0.14 0.11 0.05 0.02 0.01 0.02 0.01 0.00 0.00 0.01 0.02 0.04 0.06 0.08 0.08 0.08 0.07 0.05 0.03 0.02 0.02 0.01 0.01 0.01 0.04 0.08 0.05 0.01 0.00 0.00 0.00 0.00 0.00 0.00 0.00 0.00 0.00
0.18 0.18 0.14 0.09 0.04 0.02 0.02 0.02 0.00 0.00 0.00 0.01 0.01 0.02 0.02 0.02 0.02 0.03 0.02 0.01 0.01 0.00 0.00 0.00 0.01 0.01 0.02 0.01 0.00 0.00 0.00 0.00 0.00 0.00 0.00 0.00 0.00 0.00
0.24 0.25 0.19 0.13 0.07 0.03 0.02 0.01 0.00 0.00 0.00 0.00 0.00 0.01 0.01 0.01 0.01 0.01 0.01 0.01 0.00 0.00 0.00 0.00 0.00 0.00 0.00 0.00 0.00 0.00 0.00 0.00 0.00 0.00 0.00 0.01 0.01 0.00
0.28 0.34 0.28 0.18 0.10 0.05 0.02 0.00 0.00 0.00 0.00 0.00 0.00 0.00 0.00 0.00 0.00 0.00 0.00 0.00 0.00 0.00 0.00 0.00 0.00 0.00 0.00 0.00 0.00 0.00 0.00 0.00 0.00 0.00 0.00 0.01 0.01 0.00
0.32 0.38 0.39 0.27 0.15 0.07 0.03 0.01 0.00 0.00 0.00 0.00 0.00 0.00 0.00 0.00 0.00 0.00 0.00 0.00 0.00 0.00 0.00 0.00 0.00 0.00 0.00 0.00 0.00 0.00 0.00 0.00 0.00 0.00 0.00 0.00 0.00 0.00
0.37 0.44 0.49 0.37 0.21 0.09 0.03 0.01 0.00 0.00 0.00 0.00 0.00 0.00 0.00 0.00 0.00 0.00 0.00 0.00 0.00 0.00 0.00 0.00 0.00 0.00 0.00 0.00 0.00 0.00 0.00 0.00 0.00 0.00 0.00 0.00 0.00 0.00
0.34 0.45 0.51 0.40 0.21 0.09 0.02 0.01 0.00 0.00 0.00 0.00 0.00 0.00 0.00 0.00 0.00 0.00 0.00 0.00 0.00 0.00 0.00 0.00 0.00 0.00 0.00 0.00 0.00 0.00 0.00 0.00 0.00 0.00 0.00 0.00 0.00 0.00
0.21 0.32 0.38 0.33 0.17 0.07 0.02 0.00 0.00 0.00 0.00 0.00 0.00 0.00 0.00 0.00 0.00 0.00 0.00 0.00 0.00 0.00 0.00 0.00 0.00 0.00 0.00 0.00 0.00 0.00 0.00 0.00 0.00 0.00 0.00 0.00 0.00 0.00
0.13 0.18 0.23 0.21 0.11 0.05 0.02 0.00 0.00 0.00 0.00 0.00 0.00 0.00 0.00 0.00 0.00 0.00 0.00 0.00 0.00 0.00 0.00 0.00 0.00 0.00 0.00 0.00 0.00 0.00 0.00 0.00 0.00 0.00 0.00 0.00 0.00 0.00
0.09 0.10 0.12 0.09 0.05 0.02 0.01 0.00 0.00 0.00 0.00 0.00 0.00 0.00 0.00 0.00 0.00 0.00 0.00 0.00 0.00 0.00 0.00 0.00 0.00 0.00 0.00 0.00 0.00 0.00 0.00 0.00 0.00 0.00 0.00 0.00 0.00 0.00
0.06 0.05 0.04 0.02 0.01 0.01 0.00 0.00 0.00 0.00 0.00 0.00 0.00 0.00 0.00 0.00 0.00 0.00 0.00 0.00 0.00 0.00 0.00 0.00 0.00 0.00 0.00 0.00 0.00 0.00 0.00 0.00 0.00 0.00 0.00 0.00 0.00 0.00
0.04 0.02 0.01 0.00 0.00 0.00 0.00 0.00 0.00 0.00 0.00 0.00 0.00 0.00 0.00 0.00 0.00 0.00 0.00 0.00 0.00 0.00 0.00 0.00 0.00 0.00 0.00 0.00 0.00 0.00 0.00 0.00 0.00 0.00 0.00 0.00 0.00 0.00

GEFSNE_prec_meanprecacc_024.txt.gz
Total_Precipitation_Accumulation
0.11 0.15 0.17 0.17 0.19 0.22 0.25 0.30 0.35 0.32 0.37 0.47 0.53 0.62 0.71 0.64 0.59 0.47 0.30 0.24 0.18 0.15 0.14 0.14 0.13 0.15 0.18 0.18 0.21 0.22 0.23 0.26 0.31 0.42 0.59 0.76 0.90 0.99
0.17 0.19 0.22 0.22 0.23 0.26 0.27 0.35 0.45 0.43 0.45 0.51 0.54 0.55 0.54 0.40 0.36 0.31 0.24 0.19 0.13 0.10 0.10 0.09 0.08 0.08 0.09 0.09 0.09 0.08 0.08 0.08 0.09 0.12 0.17 0.28 0.44 0.67
0.13 0.15 0.20 0.24 0.26 0.29 0.36 0.42 0.45 0.53 0.52 0.46 0.51 0.56 0.48 0.32 0.22 0.19 0.16 0.12 0.08 0.08 0.08 0.06 0.05 0.04 0.04 0.04 0.03 0.03 0.02 0.02 0.02 0.02 0.03 0.05 0.08 0.14
0.13 0.15 0.15 0.17 0.21 0.26 0.34 0.39 0.45 0.57 0.59 0.44 0.43 0.48 0.43 0.32 0.20 0.17 0.11 0.08 0.06 0.06 0.06 0.06 0.04 0.03 0.02 0.01 0.01 0.01 0.01 0.00 0.00 0.00 0.01 0.01 0.01 0.02
0.18 0.18 0.16 0.16 0.18 0.23 0.31 0.33 0.38 0.55 0.63 0.55 0.48 0.46 0.44 0.32 0.23 0.17 0.10 0.07 0.05 0.04 0.04 0.03 0.02 0.01 0.01 0.01 0.00 0.00 0.00 0.00 0.00 0.00 0.00 0.00 0.00 0.00
0.23 0.22 0.19 0.17 0.16 0.14 0.23 0.35 0.40 0.48 0.58 0.59 0.60 0.59 0.50 0.38 0.30 0.23 0.16 0.09 0.05 0.03 0.02 0.02 0.01 0.01 0.00 0.00 0.00 0.00 0.00 0.00 0.00 0.00 0.00 0.00 0.00 0.00
0.15 0.20 0.19 0.16 0.14 0.12 0.13 0.23 0.36 0.51 0.68 0.75 0.74 0.78 0.67 0.53 0.40 0.28 0.21 0.14 0.08 0.04 0.03 0.02 0.02 0.01 0.00 0.00 0.00 0.00 0.00 0.00 0.00 0.00 0.00 0.00 0.00 0.00
0.10 0.16 0.16 0.15 0.11 0.09 0.08 0.11 0.19 0.33 0.53 0.71 0.83 0.87 0.81 0.66 0.49 0.34 0.23 0.13 0.11 0.10 0.07 0.05 0.03 0.01 0.00 0.00 0.00 0.00 0.00 0.00 0.00 0.00 0.00 0.00 0.00 0.00
0.08 0.10 0.11 0.10 0.11 0.08 0.05 0.05 0.06 0.13 0.25 0.41 0.57 0.64 0.70 0.66 0.51 0.36 0.24 0.16 0.11 0.09 0.07 0.04 0.02 0.00 0.00 0.00 0.00 0.00 0.00 0.00 0.00 0.00 0.00 0.00 0.00 0.00
0.09 0.09 0.10 0.10 0.09 0.08 0.06 0.04 0.03 0.04 0.10 0.18 0.29 0.39 0.44 0.43 0.37 0.32 0.26 0.19 0.15 0.10 0.05 0.04 0.02 0.02 0.01 0.00 0.00 0.00 0.00 0.00 0.00 0.00 0.00 0.00 0.00 0.00
0.11 0.12 0.13 0.11 0.08 0.07 0.07 0.04 0.02 0.02 0.04 0.08 0.15 0.24 0.29 0.29 0.24 0.22 0.20 0.15 0.13 0.09 0.04 0.02 0.02 0.05 0.06 0.03 0.00 0.00 0.00 0.00 0.00 0.00 0.00 0.00 0.00 0.00
0.15 0.16 0.16 0.13 0.10 0.08 0.07 0.05 0.02 0.01 0.01 0.03 0.08 0.14 0.16 0.19 0.19 0.14 0.11 0.10 0.08 0.06 0.03 0.01 0.01 0.04 0.08 0.05 0.01 0.00 0.00 0.00 0.00 0.00 0.00 0.00 0.00 0.00
0.19 0.20 0.20 0.18 0.15 0.11 0.08 0.06 0.03 0.01 0.01 0.02 0.05 0.09 0.12 0.13 0.13 0.11 0.09 0.06 0.04 0.03 0.02 0.01 0.01 0.01 0.02 0.01 0.00 0.00 0.00 0.00 0.00 0.00 0.00 0.00 0.00 0.00
0.24 0.27 0.26 0.26 0.23 0.19 0.13 0.08 0.04 0.02 0.01 0.02 0.03 0.07 0.09 0.10 0.10 0.09 0.09 0.06 0.04 0.02 0.01 0.01 0.01 0.01 0.00 0.00 0.00 0.00 0.00 0.00 0.00 0.00 0.00 0.01 0.01 0.00
0.28 0.37 0.40 0.37 0.35 0.30 0.22 0.14 0.07 0.04 0.02 0.02 0.03 0.04 0.04 0.05 0.05 0.06 0.06 0.06 0.04 0.01 0.01 0.00 0.00 0.00 0.00 0.00 0.00 0.00 0.00 0.00 0.00 0.00 0.00 0.01 0.01 0.00
0.32 0.42 0.52 0.54 0.52 0.46 0.35 0.21 0.10 0.06 0.03 0.03 0.02 0.02 0.03 0.03 0.03 0.03 0.03 0.03 0.03 0.01 0.00 0.00 0.00 0.00 0.00 0.00 0.00 0.00 0.00 0.00 0.00 0.00 0.00 0.00 0.00 0.00
0.38 0.48 0.63 0.69 0.72 0.64 0.48 0.29 0.15 0.09 0.05 0.03 0.03 0.02 0.02 0.02 0.02 0.02 0.02 0.02 0.01 0.00 0.00 0.00 0.00 0.00 0.00 0.00 0.00 0.00 0.00 0.00 0.00 0.00 0.00 0.00 0.00 0.00
0.34 0.48 0.67 0.74 0.77 0.72 0.56 0.35 0.18 0.09 0.06 0.04 0.03 0.02 0.02 0.02 0.02 0.01 0.02 0.01 0.01 0.00 0.00 0.00 0.00 0.00 0.00 0.00 0.00 0.00 0.00 0.00 0.00 0.00 0.00 0.00 0.00 0.00
0.23 0.35 0.53 0.69 0.73 0.72 0.57 0.35 0.18 0.08 0.05 0.04 0.04 0.03 0.02 0.02 0.02 0.02 0.01 0.01 0.01 0.00 0.00 0.00 0.00 0.00 0.00 0.00 0.00 0.00 0.00 0.00 0.00 0.00 0.00 0.00 0.00 0.00
0.16 0.22 0.36 0.57 0.65 0.66 0.53 0.35 0.19 0.09 0.04 0.03 0.03 0.03 0.02 0.01 0.01 0.01 0.01 0.00 0.00 0.00 0.00 0.00 0.00 0.00 0.00 0.00 0.00 0.00 0.00 0.00 0.00 0.00 0.00 0.00 0.00 0.00
0.13 0.16 0.24 0.42 0.53 0.56 0.44 0.30 0.18 0.08 0.03 0.02 0.01 0.02 0.02 0.01 0.01 0.00 0.00 0.00 0.00 0.00 0.00 0.00 0.00 0.00 0.00 0.00 0.00 0.00 0.00 0.00 0.00 0.00 0.00 0.00 0.00 0.00
0.10 0.12 0.17 0.28 0.37 0.41 0.34 0.22 0.14 0.07 0.02 0.01 0.00 0.01 0.01 0.01 0.01 0.00 0.00 0.00 0.00 0.00 0.00 0.00 0.00 0.00 0.00 0.00 0.00 0.00 0.00 0.00 0.00 0.00 0.00 0.00 0.00 0.00
0.09 0.08 0.10 0.18 0.22 0.25 0.21 0.13 0.08 0.04 0.01 0.00 0.00 0.00 0.00 0.00 0.00 0.00 0.00 0.00 0.00 0.00 0.00 0.00 0.00 0.00 0.00 0.00 0.00 0.00 0.00 0.00 0.00 0.00 0.00 0.00 0.00 0.00

GEFSNE_prec_meanprecacc_030.txt.gz
Total_Precipitation_Accumulation
0.17 0.20 0.21 0.20 0.20 0.22 0.25 0.31 0.36 0.32 0.37 0.47 0.53 0.62 0.71 0.64 0.59 0.48 0.31 0.25 0.20 0.16 0.16 0.16 0.15 0.19 0.25 0.27 0.29 0.33 0.37 0.41 0.47 0.60 0.78 0.93 1.07 1.14
0.30 0.31 0.31 0.28 0.27 0.28 0.29 0.36 0.45 0.43 0.45 0.51 0.54 0.56 0.54 0.40 0.36 0.31 0.24 0.20 0.15 0.12 0.12 0.13 0.13 0.13 0.16 0.17 0.20 0.22 0.24 0.25 0.26 0.28 0.32 0.40 0.55 0.77
0.33 0.35 0.35 0.36 0.36 0.35 0.39 0.43 0.46 0.53 0.52 0.46 0.51 0.56 0.49 0.33 0.23 0.19 0.16 0.12 0.09 0.10 0.11 0.11 0.11 0.11 0.12 0.12 0.15 0.17 0.17 0.17 0.16 0.15 0.15 0.15 0.16 0.21
0.32 0.39 0.41 0.38 0.38 0.38 0.44 0.45 0.48 0.58 0.60 0.45 0.44 0.49 0.44 0.34 0.22 0.18 0.11 0.08 0.07 0.09 0.10 0.12 0.12 0.11 0.09 0.08 0.08 0.09 0.09 0.10 0.10 0.10 0.09 0.08 0.08 0.07
0.30 0.37 0.42 0.47 0.46 0.44 0.46 0.45 0.46 0.59 0.65 0.56 0.49 0.47 0.46 0.33 0.24 0.17 0.11 0.07 0.05 0.06 0.08 0.09 0.10 0.09 0.08 0.07 0.06 0.04 0.03 0.04 0.04 0.04 0.04 0.04 0.04 0.05
0.30 0.34 0.38 0.45 0.50 0.48 0.49 0.54 0.55 0.58 0.63 0.62 0.61 0.60 0.51 0.40 0.32 0.24 0.18 0.10 0.06 0.04 0.05 0.05 0.06 0.07 0.07 0.06 0.04 0.02 0.02 0.02 0.02 0.02 0.01 0.01 0.01 0.01
0.19 0.26 0.29 0.34 0.40 0.48 0.49 0.52 0.59 0.67 0.78 0.80 0.77 0.81 0.69 0.55 0.43 0.29 0.22 0.15 0.10 0.06 0.04 0.04 0.04 0.03 0.03 0.03 0.03 0.02 0.01 0.01 0.01 0.01 0.01 0.00 0.00 0.00
0.12 0.19 0.22 0.24 0.27 0.31 0.38 0.45 0.50 0.56 0.68 0.80 0.88 0.90 0.83 0.68 0.50 0.35 0.23 0.14 0.13 0.13 0.08 0.06 0.04 0.02 0.01 0.01 0.02 0.01 0.01 0.00 0.00 0.00 0.00 0.00 0.00 0.00
0.11 0.13 0.13 0.14 0.20 0.23 0.25 0.30 0.35 0.38 0.44 0.55 0.66 0.71 0.75 0.69 0.53 0.37 0.25 0.17 0.11 0.11 0.10 0.08 0.03 0.02 0.01 0.00 0.00 0.00 0.00 0.00 0.00 0.00 0.00 0.00 0.00 0.00
0.13 0.12 0.12 0.13 0.14 0.16 0.21 0.22 0.22 0.24 0.26 0.30 0.38 0.48 0.52 0.50 0.41 0.35 0.27 0.22 0.18 0.12 0.07 0.09 0.06 0.04 0.02 0.01 0.00 0.00 0.00 0.00 0.00 0.00 0.00 0.00 0.00 0.00
0.15 0.15 0.15 0.14 0.10 0.10 0.15 0.17 0.17 0.17 0.17 0.21 0.25 0.32 0.38 0.36 0.30 0.25 0.23 0.19 0.19 0.15 0.06 0.05 0.06 0.07 0.08 0.04 0.01 0.00 0.00 0.00 0.00 0.00 0.00 0.00 0.00 0.00
0.20 0.20 0.18 0.14 0.11 0.09 0.11 0.13 0.13 0.13 0.12 0.13 0.17 0.21 0.21 0.23 0.23 0.18 0.14 0.14 0.13 0.13 0.07 0.03 0.03 0.05 0.10 0.05 0.02 0.01 0.00 0.00 0.00 0.00 0.00 0.00 0.00 0.00
0.22 0.23 0.22 0.19 0.15 0.12 0.10 0.10 0.10 0.11 0.11 0.11 0.13 0.17 0.19 0.19 0.19 0.18 0.16 0.12 0.09 0.06 0.04 0.03 0.03 0.03 0.04 0.03 0.01 0.00 0.00 0.00 0.00 0.00 0.00 0.00 0.00 0.00
0.28 0.30 0.29 0.26 0.23 0.19 0.14 0.11 0.09 0.10 0.13 0.13 0.14 0.15 0.16 0.17 0.18 0.19 0.19 0.17 0.12 0.08 0.05 0.02 0.02 0.02 0.02 0.02 0.01 0.00 0.00 0.00 0.00 0.00 0.00 0.01 0.01 0.00
0.31 0.40 0.41 0.38 0.35 0.30 0.23 0.16 0.12 0.10 0.13 0.14 0.12 0.12 0.11 0.10 0.12 0.17 0.20 0.20 0.17 0.12 0.08 0.05 0.03 0.03 0.03 0.03 0.02 0.01 0.00 0.00 0.00 0.00 0.00 0.01 0.01 0.00
0.33 0.43 0.52 0.54 0.52 0.47 0.37 0.25 0.16 0.14 0.13 0.13 0.12 0.11 0.12 0.11 0.11 0.11 0.13 0.15 0.15 0.13 0.08 0.05 0.04 0.03 0.03 0.02 0.01 0.01 0.00 0.00 0.00 0.00 0.00 0.00 0.00 0.00
0.40 0.51 0.66 0.71 0.73 0.66 0.51 0.35 0.24 0.21 0.18 0.16 0.14 0.12 0.12 0.12 0.11 0.09 0.08 0.07 0.07 0.07 0.05 0.03 0.02 0.02 0.02 0.02 0.01 0.00 0.00 0.00 0.00 0.00 0.00 0.00 0.00 0.00
0.36 0.52 0.71 0.78 0.81 0.76 0.62 0.46 0.33 0.27 0.24 0.19 0.17 0.14 0.11 0.11 0.10 0.08 0.07 0.06 0.05 0.05 0.04 0.02 0.02 0.02 0.01 0.01 0.00 0.00 0.00 0.00 0.00 0.00 0.00 0.00 0.00 0.00
0.25 0.39 0.58 0.73 0.77 0.77 0.66 0.50 0.39 0.31 0.28 0.24 0.20 0.17 0.12 0.10 0.10 0.08 0.07 0.05 0.04 0.04 0.03 0.02 0.02 0.01 0.01 0.01 0.00 0.00 0.00 0.00 0.00 0.00 0.00 0.00 0.00 0.00
0.19 0.27 0.41 0.62 0.70 0.72 0.65 0.55 0.46 0.38 0.34 0.29 0.25 0.20 0.13 0.10 0.09 0.08 0.06 0.04 0.03 0.03 0.02 0.02 0.02 0.01 0.01 0.01 0.00 0.00 0.00 0.00 0.00 0.00 0.00 0.00 0.00 0.00
0.15 0.19 0.29 0.47 0.59 0.65 0.59 0.53 0.49 0.43 0.37 0.32 0.28 0.23 0.16 0.11 0.09 0.07 0.06 0.04 0.03 0.02 0.01 0.01 0.01 0.00 0.00 0.00 0.00 0.00 0.00 0.00 0.00 0.00 0.00 0.00 0.00 0.00
0.13 0.16 0.23 0.36 0.48 0.56 0.54 0.49 0.49 0.45 0.39 0.32 0.28 0.23 0.17 0.12 0.09 0.07 0.05 0.03 0.02 0.01 0.01 0.01 0.01 0.00 0.00 0.00 0.00 0.00 0.00 0.00 0.00 0.00 0.00 0.00 0.00 0.00
0.13 0.13 0.18 0.29 0.38 0.45 0.45 0.41 0.43 0.45 0.37 0.29 0.25 0.20 0.15 0.11 0.08 0.06 0.04 0.03 0.02 0.01 0.01 0.01 0.00 0.00 0.00 0.00 0.00 0.00 0.00 0.00 0.00 0.00 0.00 0.00 0.00 0.00

GEFSNE_prec_meanprecacc_036.txt.gz
Total_Precipitation_Accumulation
0.30 0.38 0.39 0.35 0.32 0.30 0.30 0.34 0.39 0.36 0.40 0.49 0.54 0.62 0.71 0.65 0.60 0.48 0.33 0.26 0.20 0.16 0.16 0.16 0.16 0.20 0.26 0.29 0.33 0.37 0.43 0.47 0.55 0.71 0.91 1.09 1.25 1.37
0.38 0.44 0.49 0.49 0.47 0.43 0.39 0.42 0.50 0.48 0.51 0.54 0.57 0.57 0.55 0.40 0.37 0.32 0.24 0.20 0.15 0.12 0.12 0.13 0.13 0.14 0.17 0.20 0.23 0.27 0.30 0.32 0.34 0.37 0.43 0.53 0.69 0.93
0.36 0.42 0.46 0.53 0.59 0.58 0.59 0.58 0.56 0.61 0.59 0.52 0.58 0.61 0.51 0.34 0.24 0.20 0.17 0.13 0.09 0.10 0.11 0.11 0.11 0.12 0.12 0.14 0.18 0.21 0.23 0.24 0.24 0.25 0.27 0.28 0.29 0.34
0.33 0.43 0.47 0.49 0.54 0.61 0.70 0.69 0.68 0.74 0.72 0.58 0.59 0.60 0.51 0.39 0.26 0.20 0.12 0.09 0.07 0.09 0.10 0.12 0.12 0.11 0.10 0.09 0.10 0.11 0.12 0.14 0.16 0.16 0.16 0.16 0.17 0.17
0.31 0.39 0.47 0.55 0.58 0.61 0.69 0.71 0.74 0.85 0.85 0.74 0.67 0.67 0.61 0.41 0.28 0.19 0.11 0.08 0.05 0.07 0.08 0.10 0.10 0.09 0.08 0.08 0.07 0.05 0.05 0.06 0.08 0.08 0.09 0.11 0.12 0.12
0.32 0.35 0.40 0.51 0.60 0.64 0.71 0.81 0.86 0.90 0.93 0.88 0.85 0.83 0.73 0.55 0.39 0.26 0.18 0.11 0.06 0.04 0.05 0.06 0.07 0.08 0.08 0.06 0.05 0.04 0.03 0.03 0.04 0.05 0.05 0.04 0.05 0.06
0.22 0.29 0.31 0.36 0.46 0.58 0.67 0.76 0.89 1.00 1.11 1.11 1.07 1.10 0.94 0.72 0.52 0.32 0.23 0.15 0.10 0.06 0.05 0.04 0.04 0.04 0.04 0.04 0.04 0.03 0.02 0.01 0.01 0.02 0.02 0.02 0.02 0.02
0.18 0.24 0.25 0.26 0.29 0.36 0.47 0.61 0.75 0.87 1.04 1.15 1.20 1.23 1.17 0.93 0.68 0.44 0.26 0.14 0.14 0.14 0.09 0.08 0.05 0.03 0.02 0.02 0.02 0.02 0.02 0.01 0.01 0.00 0.01 0.01 0.01 0.01
0.19 0.21 0.17 0.16 0.22 0.25 0.30 0.38 0.49 0.61 0.73 0.89 1.01 1.03 1.10 1.05 0.78 0.51 0.31 0.18 0.12 0.11 0.10 0.09 0.05 0.03 0.01 0.01 0.01 0.01 0.01 0.01 0.00 0.00 0.00 0.00 0.00 0.00
0.20 0.21 0.20 0.18 0.19 0.22 0.26 0.27 0.29 0.35 0.43 0.52 0.64 0.80 0.88 0.90 0.75 0.57 0.40 0.26 0.19 0.12 0.07 0.09 0.07 0.04 0.03 0.02 0.01 0.01 0.00 0.00 0.00 0.00 0.00 0.00 0.00 0.00
0.22 0.23 0.24 0.21 0.17 0.14 0.21 0.23 0.24 0.25 0.28 0.35 0.45 0.61 0.72 0.74 0.71 0.54 0.38 0.24 0.20 0.15 0.06 0.05 0.07 0.08 0.09 0.05 0.01 0.00 0.00 0.00 0.00 0.00 0.00 0.00 0.00 0.00
0.31 0.31 0.26 0.23 0.20 0.12 0.15 0.18 0.18 0.20 0.22 0.23 0.29 0.39 0.45 0.53 0.56 0.45 0.29 0.20 0.14 0.13 0.07 0.03 0.04 0.06 0.11 0.06 0.02 0.01 0.00 0.00 0.00 0.00 0.00 0.00 0.00 0.00
0.36 0.34 0.32 0.25 0.19 0.13 0.12 0.15 0.14 0.16 0.20 0.23 0.25 0.31 0.37 0.40 0.44 0.43 0.31 0.19 0.12 0.07 0.05 0.04 0.03 0.03 0.04 0.03 0.01 0.01 0.00 0.00 0.00 0.00 0.00 0.00 0.00 0.00
0.45 0.45 0.43 0.35 0.26 0.20 0.14 0.12 0.11 0.13 0.19 0.23 0.27 0.29 0.32 0.32 0.35 0.38 0.36 0.27 0.17 0.10 0.05 0.03 0.03 0.03 0.03 0.02 0.01 0.01 0.01 0.00 0.00 0.00 0.01 0.01 0.01 0.00
0.46 0.56 0.55 0.44 0.38 0.32 0.24 0.16 0.12 0.11 0.16 0.21 0.22 0.24 0.25 0.25 0.28 0.35 0.36 0.31 0.24 0.16 0.10 0.06 0.04 0.03 0.03 0.03 0.02 0.01 0.01 0.00 0.00 0.00 0.00 0.01 0.01 0.00
0.40 0.51 0.59 0.58 0.54 0.48 0.38 0.25 0.16 0.15 0.15 0.20 0.21 0.24 0.28 0.28 0.27 0.25 0.25 0.24 0.23 0.19 0.12 0.07 0.05 0.04 0.03 0.02 0.02 0.01 0.01 0.00 0.00 0.00 0.00 0.00 0.00 0.00
0.45 0.61 0.74 0.77 0.76 0.68 0.54 0.37 0.25 0.22 0.21 0.22 0.25 0.26 0.29 0.28 0.24 0.19 0.16 0.14 0.13 0.12 0.10 0.06 0.04 0.03 0.03 0.02 0.02 0.01 0.01 0.00 0.00 0.00 0.00 0.00 0.00 0.00
0.40 0.63 0.85 0.91 0.90 0.84 0.69 0.51 0.38 0.30 0.28 0.27 0.28 0.27 0.26 0.25 0.22 0.17 0.14 0.12 0.10 0.08 0.07 0.05 0.04 0.03 0.02 0.02 0.01 0.00 0.00 0.00 0.00 0.00 0.00 0.00 0.00 0.00
0.27 0.46 0.69 0.85 0.90 0.88 0.76 0.59 0.45 0.36 0.36 0.34 0.32 0.28 0.25 0.24 0.20 0.17 0.14 0.12 0.09 0.07 0.05 0.04 0.03 0.02 0.02 0.02 0.01 0.01 0.00 0.00 0.00 0.00 0.00 0.00 0.00 0.00
0.21 0.32 0.50 0.73 0.81 0.82 0.75 0.64 0.53 0.47 0.45 0.42 0.37 0.32 0.28 0.23 0.19 0.15 0.12 0.10 0.08 0.06 0.05 0.04 0.03 0.02 0.01 0.01 0.01 0.01 0.00 0.00 0.00 0.00 0.00 0.00 0.00 0.00
0.19 0.24 0.36 0.55 0.68 0.73 0.69 0.63 0.57 0.53 0.49 0.46 0.42 0.36 0.30 0.26 0.20 0.15 0.11 0.11 0.08 0.05 0.04 0.03 0.03 0.02 0.01 0.01 0.01 0.00 0.00 0.00 0.00 0.00 0.00 0.00 0.00 0.00
0.21 0.22 0.29 0.43 0.56 0.65 0.65 0.58 0.57 0.54 0.52 0.47 0.44 0.38 0.32 0.28 0.23 0.17 0.13 0.10 0.07 0.05 0.04 0.03 0.02 0.01 0.01 0.00 0.00 0.00 0.00 0.00 0.00 0.00 0.00 0.00 0.00 0.00
0.24 0.22 0.25 0.35 0.45 0.53 0.53 0.49 0.50 0.53 0.48 0.44 0.41 0.38 0.33 0.29 0.25 0.19 0.14 0.10 0.07 0.05 0.05 0.04 0.02 0.02 0.01 0.00 0.00 0.00 0.00 0.00 0.00 0.00 0.00 0.00 0.00 0.00

GEFSNE_prec_meanprecacc_042.txt.gz
Total_Precipitation_Accumulation
0.31 0.40 0.41 0.38 0.39 0.40 0.44 0.53 0.58 0.49 0.49 0.56 0.60 0.66 0.74 0.67 0.61 0.49 0.33 0.27 0.21 0.17 0.16 0.16 0.16 0.20 0.27 0.30 0.34 0.38 0.43 0.49 0.57 0.74 0.96 1.16 1.34 1.47
0.38 0.44 0.50 0.50 0.51 0.50 0.51 0.58 0.70 0.67 0.62 0.62 0.64 0.64 0.61 0.43 0.38 0.33 0.25 0.21 0.15 0.13 0.12 0.13 0.13 0.15 0.18 0.20 0.23 0.27 0.31 0.32 0.35 0.39 0.45 0.56 0.73 0.98
0.37 0.42 0.46 0.54 0.61 0.62 0.67 0.68 0.70 0.80 0.74 0.63 0.72 0.78 0.64 0.42 0.28 0.23 0.18 0.13 0.10 0.11 0.11 0.11 0.11 0.12 0.13 0.14 0.18 0.21 0.23 0.25 0.26 0.27 0.29 0.30 0.31 0.36
0.34 0.44 0.48 0.49 0.55 0.63 0.75 0.78 0.79 0.90 0.88 0.73 0.79 0.85 0.72 0.56 0.37 0.25 0.14 0.09 0.08 0.09 0.11 0.12 0.12 0.11 0.10 0.09 0.10 0.11 0.13 0.15 0.17 0.17 0.17 0.18 0.19 0.20
0.31 0.39 0.47 0.55 0.58 0.62 0.72 0.77 0.83 0.98 1.01 0.91 0.89 0.96 0.95 0.71 0.46 0.26 0.14 0.08 0.06 0.07 0.09 0.10 0.11 0.10 0.09 0.08 0.07 0.05 0.05 0.07 0.08 0.09 0.10 0.12 0.14 0.15
0.33 0.36 0.41 0.52 0.60 0.64 0.72 0.84 0.93 1.01 1.08 1.05 1.07 1.14 1.09 0.92 0.64 0.36 0.22 0.12 0.07 0.05 0.06 0.07 0.08 0.08 0.08 0.07 0.06 0.04 0.03 0.04 0.05 0.06 0.05 0.05 0.06 0.07
0.23 0.30 0.32 0.37 0.47 0.58 0.67 0.77 0.93 1.08 1.23 1.28 1.27 1.40 1.30 1.05 0.77 0.46 0.29 0.18 0.11 0.07 0.05 0.05 0.05 0.04 0.04 0.05 0.05 0.04 0.03 0.02 0.02 0.03 0.03 0.03 0.03 0.03
0.20 0.26 0.26 0.27 0.31 0.37 0.48 0.62 0.77 0.92 1.12 1.29 1.39 1.47 1.48 1.25 0.99 0.70 0.38 0.18 0.15 0.14 0.09 0.08 0.05 0.03 0.02 0.02 0.04 0.03 0.02 0.02 0.01 0.01 0.01 0.02 0.02 0.02
0.21 0.23 0.19 0.17 0.24 0.27 0.32 0.40 0.51 0.63 0.78 0.98 1.14 1.22 1.38 1.40 1.14 0.83 0.51 0.28 0.15 0.12 0.10 0.09 0.06 0.03 0.02 0.02 0.03 0.02 0.02 0.01 0.01 0.01 0.00 0.00 0.01 0.01
0.23 0.24 0.23 0.21 0.22 0.27 0.30 0.30 0.31 0.36 0.45 0.56 0.73 0.94 1.11 1.24 1.15 0.98 0.79 0.49 0.28 0.15 0.08 0.10 0.08 0.05 0.04 0.03 0.04 0.03 0.01 0.01 0.00 0.00 0.00 0.00 0.00 0.00
0.25 0.27 0.29 0.24 0.20 0.20 0.27 0.27 0.26 0.26 0.29 0.37 0.51 0.71 0.92 1.04 1.09 0.93 0.75 0.55 0.38 0.20 0.07 0.05 0.07 0.09 0.10 0.06 0.04 0.03 0.02 0.01 0.00 0.00 0.00 0.00 0.00 0.00
0.35 0.36 0.34 0.29 0.25 0.18 0.22 0.24 0.22 0.22 0.24 0.24 0.32 0.46 0.59 0.78 0.90 0.78 0.60 0.47 0.34 0.22 0.09 0.04 0.04 0.06 0.11 0.07 0.03 0.02 0.01 0.01 0.00 0.00 0.00 0.00 0.00 0.00
0.40 0.40 0.39 0.32 0.25 0.19 0.19 0.22 0.19 0.21 0.25 0.26 0.27 0.36 0.48 0.59 0.74 0.74 0.60 0.41 0.28 0.17 0.08 0.04 0.03 0.03 0.04 0.03 0.02 0.01 0.01 0.00 0.00 0.00 0.00 0.00 0.00 0.00
0.50 0.51 0.49 0.41 0.32 0.26 0.20 0.18 0.17 0.19 0.26 0.28 0.31 0.34 0.40 0.46 0.57 0.70 0.68 0.51 0.33 0.21 0.11 0.05 0.03 0.03 0.03 0.02 0.01 0.01 0.01 0.00 0.00 0.00 0.01 0.01 0.01 0.00
0.52 0.63 0.61 0.50 0.43 0.37 0.29 0.22 0.19 0.17 0.22 0.27 0.26 0.28 0.32 0.37 0.46 0.62 0.70 0.65 0.49 0.32 0.20 0.10 0.05 0.03 0.03 0.03 0.02 0.01 0.01 0.00 0.00 0.00 0.00 0.01 0.01 0.00
0.46 0.57 0.65 0.64 0.59 0.52 0.42 0.29 0.21 0.19 0.20 0.24 0.25 0.28 0.34 0.41 0.46 0.46 0.54 0.56 0.50 0.39 0.23 0.12 0.07 0.05 0.03 0.02 0.02 0.01 0.01 0.00 0.00 0.00 0.00 0.00 0.00 0.00
0.50 0.66 0.80 0.82 0.80 0.71 0.57 0.41 0.29 0.25 0.24 0.24 0.28 0.29 0.34 0.38 0.40 0.36 0.38 0.41 0.33 0.27 0.20 0.12 0.06 0.04 0.04 0.02 0.02 0.01 0.01 0.00 0.00 0.00 0.00 0.00 0.00 0.00
0.41 0.66 0.89 0.95 0.94 0.87 0.73 0.54 0.40 0.31 0.29 0.28 0.29 0.30 0.31 0.33 0.35 0.34 0.31 0.33 0.31 0.21 0.16 0.10 0.06 0.04 0.04 0.02 0.01 0.00 0.00 0.00 0.00 0.00 0.00 0.00 0.00 0.00
0.27 0.47 0.72 0.89 0.92 0.91 0.80 0.62 0.47 0.38 0.38 0.35 0.33 0.31 0.30 0.30 0.30 0.32 0.30 0.28 0.28 0.23 0.16 0.11 0.06 0.04 0.03 0.02 0.01 0.01 0.00 0.00 0.00 0.00 0.00 0.00 0.00 0.00
0.21 0.33 0.52 0.75 0.83 0.84 0.77 0.66 0.56 0.49 0.47 0.43 0.39 0.34 0.31 0.30 0.27 0.27 0.25 0.23 0.21 0.20 0.16 0.12 0.08 0.04 0.02 0.02 0.01 0.01 0.00 0.00 0.00 0.00 0.00 0.00 0.00 0.00
0.19 0.24 0.37 0.57 0.69 0.74 0.71 0.65 0.59 0.55 0.51 0.49 0.45 0.39 0.33 0.31 0.27 0.23 0.22 0.24 0.19 0.15 0.12 0.10 0.07 0.06 0.04 0.02 0.01 0.01 0.00 0.00 0.00 0.00 0.00 0.00 0.00 0.00
0.22 0.23 0.30 0.44 0.57 0.66 0.66 0.60 0.59 0.57 0.55 0.50 0.47 0.41 0.35 0.32 0.29 0.24 0.22 0.20 0.16 0.12 0.10 0.09 0.08 0.06 0.04 0.02 0.01 0.00 0.00 0.00 0.00 0.00 0.00 0.00 0.00 0.00
0.27 0.24 0.27 0.37 0.46 0.54 0.55 0.51 0.52 0.55 0.51 0.48 0.44 0.41 0.36 0.32 0.30 0.27 0.22 0.18 0.15 0.12 0.12 0.11 0.09 0.06 0.04 0.02 0.01 0.01 0.01 0.00 0.00 0.00 0.00 0.00 0.00 0.00

GEFSNE_prec_meanprecacc_048.txt.gz
Total_Precipitation_Accumulation
0.31 0.40 0.42 0.39 0.39 0.40 0.44 0.54 0.61 0.52 0.51 0.58 0.64 0.73 0.82 0.76 0.72 0.60 0.42 0.36 0.30 0.24 0.22 0.20 0.20 0.24 0.30 0.32 0.36 0.40 0.45 0.50 0.59 0.76 0.99 1.21 1.39 1.54
0.38 0.44 0.50 0.50 0.51 0.50 0.51 0.59 0.72 0.70 0.65 0.64 0.67 0.69 0.69 0.52 0.50 0.45 0.36 0.33 0.26 0.21 0.18 0.17 0.16 0.17 0.20 0.22 0.25 0.29 0.32 0.33 0.36 0.40 0.47 0.59 0.76 1.01
0.37 0.42 0.46 0.54 0.61 0.62 0.67 0.69 0.72 0.82 0.76 0.65 0.75 0.82 0.72 0.53 0.40 0.35 0.31 0.25 0.20 0.21 0.19 0.16 0.15 0.14 0.14 0.15 0.19 0.22 0.24 0.25 0.26 0.28 0.30 0.32 0.32 0.38
0.34 0.44 0.48 0.49 0.55 0.63 0.75 0.78 0.80 0.91 0.90 0.76 0.83 0.92 0.82 0.68 0.51 0.39 0.27 0.21 0.18 0.18 0.18 0.17 0.16 0.14 0.12 0.11 0.11 0.12 0.14 0.16 0.18 0.18 0.19 0.19 0.21 0.21
0.31 0.39 0.47 0.55 0.58 0.62 0.72 0.77 0.83 0.99 1.03 0.95 0.94 1.04 1.07 0.85 0.59 0.40 0.27 0.20 0.15 0.15 0.15 0.14 0.14 0.12 0.10 0.09 0.08 0.06 0.06 0.08 0.09 0.09 0.11 0.13 0.15 0.16
0.33 0.36 0.41 0.52 0.60 0.64 0.72 0.84 0.93 1.02 1.10 1.08 1.12 1.22 1.21 1.08 0.79 0.48 0.34 0.23 0.15 0.11 0.11 0.11 0.11 0.10 0.09 0.08 0.06 0.04 0.04 0.04 0.05 0.06 0.05 0.05 0.07 0.08
0.23 0.30 0.32 0.37 0.47 0.58 0.67 0.77 0.93 1.08 1.25 1.31 1.32 1.48 1.43 1.22 0.94 0.60 0.42 0.29 0.20 0.12 0.09 0.07 0.06 0.05 0.05 0.06 0.06 0.05 0.03 0.03 0.02 0.03 0.03 0.03 0.03 0.03
0.20 0.26 0.26 0.27 0.31 0.37 0.48 0.62 0.77 0.93 1.13 1.31 1.44 1.54 1.58 1.42 1.20 0.93 0.55 0.29 0.22 0.19 0.12 0.11 0.06 0.04 0.03 0.02 0.05 0.04 0.03 0.03 0.02 0.02 0.02 0.02 0.02 0.02
0.21 0.23 0.19 0.17 0.24 0.27 0.32 0.40 0.51 0.63 0.78 0.99 1.19 1.29 1.46 1.55 1.38 1.08 0.74 0.45 0.25 0.17 0.13 0.12 0.08 0.05 0.03 0.04 0.05 0.04 0.03 0.02 0.02 0.02 0.01 0.01 0.02 0.02
0.23 0.24 0.23 0.21 0.22 0.27 0.30 0.30 0.31 0.36 0.45 0.57 0.75 0.99 1.19 1.38 1.38 1.27 1.11 0.77 0.47 0.24 0.12 0.12 0.10 0.08 0.06 0.05 0.07 0.05 0.03 0.02 0.01 0.01 0.01 0.01 0.01 0.01
0.25 0.27 0.29 0.24 0.20 0.20 0.27 0.28 0.27 0.27 0.30 0.39 0.53 0.75 1.00 1.17 1.32 1.28 1.14 0.91 0.63 0.33 0.12 0.07 0.09 0.11 0.12 0.08 0.06 0.07 0.04 0.03 0.02 0.01 0.01 0.01 0.01 0.01
0.35 0.36 0.34 0.29 0.26 0.18 0.23 0.25 0.23 0.23 0.25 0.26 0.35 0.49 0.65 0.90 1.09 1.10 0.97 0.81 0.62 0.38 0.15 0.06 0.05 0.08 0.13 0.09 0.05 0.03 0.03 0.04 0.03 0.02 0.01 0.01 0.01 0.00
0.40 0.40 0.39 0.33 0.27 0.20 0.20 0.24 0.22 0.24 0.28 0.29 0.30 0.39 0.53 0.69 0.90 0.99 0.95 0.76 0.55 0.35 0.19 0.09 0.05 0.04 0.05 0.04 0.03 0.02 0.02 0.01 0.01 0.01 0.01 0.01 0.01 0.00
0.51 0.52 0.51 0.43 0.35 0.29 0.23 0.21 0.21 0.23 0.31 0.33 0.35 0.37 0.45 0.55 0.71 0.91 0.99 0.88 0.64 0.44 0.31 0.18 0.07 0.04 0.04 0.02 0.02 0.02 0.02 0.01 0.01 0.00 0.01 0.02 0.02 0.01
0.54 0.65 0.64 0.53 0.47 0.41 0.32 0.25 0.23 0.22 0.27 0.32 0.30 0.31 0.35 0.44 0.58 0.82 1.00 1.07 0.92 0.66 0.46 0.30 0.16 0.07 0.04 0.04 0.03 0.01 0.01 0.01 0.01 0.00 0.00 0.01 0.01 0.00
0.48 0.59 0.68 0.68 0.64 0.57 0.47 0.34 0.26 0.25 0.25 0.29 0.32 0.34 0.40 0.48 0.57 0.64 0.82 0.95 0.97 0.83 0.57 0.39 0.23 0.14 0.07 0.03 0.02 0.02 0.01 0.00 0.00 0.00 0.00 0.00 0.00 0.00
0.52 0.69 0.83 0.85 0.84 0.76 0.62 0.47 0.34 0.31 0.30 0.30 0.35 0.37 0.42 0.45 0.49 0.51 0.60 0.71 0.69 0.65 0.56 0.42 0.32 0.20 0.12 0.05 0.02 0.01 0.01 0.00 0.00 0.00 0.00 0.00 0.00 0.00
0.42 0.68 0.93 0.98 0.98 0.92 0.78 0.60 0.46 0.38 0.35 0.34 0.35 0.35 0.36 0.40 0.44 0.47 0.49 0.57 0.58 0.50 0.46 0.38 0.32 0.27 0.17 0.09 0.04 0.01 0.00 0.00 0.00 0.00 0.00 0.00 0.00 0.00
0.28 0.49 0.75 0.92 0.97 0.97 0.86 0.69 0.53 0.45 0.44 0.40 0.38 0.35 0.34 0.35 0.38 0.43 0.45 0.49 0.53 0.47 0.38 0.34 0.27 0.21 0.17 0.10 0.05 0.02 0.01 0.00 0.00 0.00 0.00 0.00 0.00 0.00
0.22 0.34 0.56 0.79 0.87 0.90 0.84 0.73 0.63 0.56 0.53 0.48 0.43 0.39 0.35 0.34 0.33 0.36 0.38 0.40 0.43 0.45 0.37 0.30 0.23 0.17 0.12 0.09 0.05 0.03 0.01 0.01 0.00 0.00 0.00 0.00 0.00 0.00
0.20 0.25 0.39 0.60 0.73 0.79 0.76 0.70 0.65 0.60 0.56 0.52 0.48 0.42 0.38 0.36 0.32 0.29 0.32 0.38 0.38 0.37 0.34 0.25 0.19 0.18 0.15 0.14 0.11 0.05 0.02 0.01 0.01 0.01 0.00 0.00 0.00 0.00
0.23 0.24 0.31 0.45 0.59 0.69 0.69 0.63 0.62 0.61 0.59 0.54 0.50 0.45 0.39 0.35 0.33 0.29 0.28 0.30 0.30 0.29 0.30 0.28 0.23 0.20 0.17 0.15 0.10 0.07 0.04 0.01 0.01 0.01 0.01 0.00 0.00 0.00
0.29 0.27 0.29 0.39 0.48 0.57 0.56 0.53 0.55 0.58 0.54 0.50 0.47 0.44 0.39 0.35 0.34 0.31 0.26 0.25 0.27 0.28 0.32 0.35 0.32 0.22 0.18 0.16 0.12 0.10 0.07 0.04 0.01 0.01 0.00 0.00 0.00 0.00

GEFSNE_prec_meanprecacc_054.txt.gz
Total_Precipitation_Accumulation
0.31 0.40 0.42 0.39 0.39 0.41 0.45 0.55 0.62 0.53 0.53 0.62 0.72 0.80 0.89 0.87 0.87 0.75 0.55 0.49 0.44 0.37 0.31 0.28 0.27 0.31 0.36 0.38 0.41 0.44 0.49 0.54 0.62 0.80 1.03 1.25 1.44 1.61
0.38 0.44 0.50 0.51 0.51 0.51 0.52 0.59 0.73 0.71 0.66 0.66 0.72 0.73 0.72 0.57 0.59 0.58 0.49 0.47 0.40 0.35 0.31 0.27 0.25 0.25 0.27 0.30 0.32 0.34 0.35 0.36 0.37 0.41 0.48 0.60 0.78 1.04
0.37 0.42 0.47 0.54 0.61 0.63 0.68 0.69 0.72 0.83 0.77 0.66 0.76 0.84 0.75 0.56 0.46 0.45 0.45 0.41 0.36 0.36 0.34 0.32 0.27 0.24 0.23 0.24 0.26 0.28 0.29 0.29 0.29 0.29 0.31 0.33 0.34 0.39
0.34 0.44 0.48 0.50 0.55 0.63 0.75 0.78 0.80 0.92 0.91 0.77 0.85 0.94 0.84 0.71 0.56 0.48 0.38 0.35 0.34 0.37 0.37 0.37 0.34 0.29 0.24 0.21 0.19 0.18 0.19 0.20 0.21 0.20 0.20 0.21 0.23 0.23
0.32 0.40 0.48 0.56 0.58 0.63 0.72 0.77 0.84 0.99 1.03 0.96 0.95 1.06 1.09 0.87 0.64 0.47 0.36 0.33 0.31 0.35 0.37 0.38 0.36 0.32 0.26 0.23 0.19 0.14 0.12 0.12 0.13 0.12 0.13 0.15 0.17 0.19
0.33 0.37 0.42 0.52 0.61 0.65 0.73 0.84 0.93 1.02 1.10 1.09 1.12 1.23 1.23 1.09 0.83 0.55 0.43 0.35 0.31 0.30 0.32 0.33 0.34 0.31 0.26 0.21 0.19 0.14 0.11 0.10 0.09 0.08 0.07 0.07 0.08 0.10
0.24 0.31 0.32 0.37 0.47 0.59 0.67 0.78 0.94 1.09 1.25 1.31 1.33 1.49 1.45 1.24 0.97 0.67 0.54 0.43 0.36 0.30 0.28 0.27 0.27 0.24 0.21 0.19 0.16 0.14 0.10 0.08 0.07 0.06 0.05 0.05 0.04 0.04
0.21 0.26 0.27 0.28 0.31 0.38 0.48 0.62 0.77 0.93 1.14 1.32 1.45 1.55 1.59 1.44 1.23 0.99 0.68 0.46 0.38 0.33 0.29 0.29 0.26 0.24 0.19 0.15 0.15 0.12 0.10 0.08 0.06 0.05 0.05 0.04 0.04 0.03
0.22 0.24 0.20 0.17 0.24 0.28 0.32 0.40 0.51 0.63 0.79 1.00 1.20 1.30 1.47 1.57 1.41 1.13 0.84 0.62 0.46 0.36 0.30 0.29 0.26 0.26 0.22 0.18 0.18 0.13 0.09 0.07 0.06 0.04 0.04 0.03 0.03 0.03
0.23 0.25 0.24 0.22 0.23 0.28 0.32 0.31 0.32 0.37 0.46 0.58 0.76 1.00 1.21 1.41 1.43 1.32 1.20 0.95 0.71 0.51 0.36 0.30 0.25 0.23 0.23 0.19 0.18 0.14 0.09 0.06 0.05 0.04 0.03 0.03 0.03 0.03
0.25 0.27 0.30 0.26 0.21 0.21 0.28 0.30 0.29 0.28 0.30 0.39 0.53 0.75 1.00 1.18 1.35 1.33 1.21 1.06 0.84 0.58 0.37 0.26 0.22 0.22 0.23 0.18 0.15 0.15 0.12 0.08 0.06 0.05 0.04 0.04 0.03 0.02
0.36 0.37 0.34 0.30 0.26 0.19 0.23 0.27 0.25 0.25 0.27 0.28 0.35 0.49 0.65 0.91 1.11 1.12 1.03 0.94 0.80 0.59 0.36 0.24 0.19 0.18 0.22 0.17 0.11 0.09 0.09 0.10 0.09 0.06 0.04 0.03 0.02 0.01
0.41 0.41 0.41 0.34 0.27 0.21 0.21 0.25 0.23 0.26 0.32 0.33 0.34 0.42 0.55 0.72 0.92 1.02 1.00 0.86 0.73 0.54 0.35 0.26 0.21 0.15 0.12 0.11 0.08 0.08 0.06 0.05 0.05 0.05 0.05 0.04 0.03 0.01
0.52 0.53 0.52 0.44 0.35 0.29 0.23 0.21 0.21 0.23 0.33 0.38 0.39 0.41 0.48 0.57 0.73 0.94 1.05 0.98 0.80 0.65 0.53 0.39 0.26 0.18 0.12 0.07 0.05 0.06 0.07 0.05 0.02 0.02 0.02 0.05 0.03 0.01
0.54 0.65 0.65 0.53 0.47 0.41 0.33 0.25 0.23 0.23 0.29 0.36 0.34 0.36 0.40 0.48 0.63 0.88 1.08 1.18 1.08 0.87 0.74 0.57 0.39 0.27 0.18 0.10 0.05 0.03 0.04 0.06 0.04 0.02 0.01 0.01 0.01 0.00
0.48 0.60 0.68 0.69 0.65 0.59 0.49 0.36 0.27 0.28 0.29 0.34 0.38 0.41 0.48 0.55 0.65 0.72 0.90 1.05 1.11 1.03 0.84 0.69 0.52 0.40 0.28 0.14 0.07 0.04 0.02 0.02 0.03 0.03 0.02 0.01 0.01 0.00
0.53 0.71 0.85 0.88 0.88 0.81 0.67 0.53 0.41 0.37 0.35 0.38 0.45 0.48 0.52 0.54 0.58 0.60 0.70 0.82 0.82 0.81 0.78 0.73 0.66 0.51 0.40 0.25 0.12 0.05 0.03 0.01 0.01 0.01 0.01 0.01 0.01 0.00
0.43 0.69 0.95 1.03 1.04 1.00 0.87 0.68 0.54 0.47 0.43 0.43 0.46 0.48 0.48 0.52 0.55 0.58 0.61 0.69 0.70 0.64 0.63 0.62 0.63 0.60 0.49 0.39 0.22 0.08 0.04 0.02 0.01 0.00 0.01 0.01 0.01 0.00
0.30 0.51 0.77 0.96 1.03 1.04 0.95 0.78 0.62 0.55 0.55 0.51 0.50 0.49 0.46 0.46 0.51 0.57 0.58 0.62 0.67 0.62 0.55 0.55 0.53 0.51 0.46 0.35 0.24 0.12 0.05 0.03 0.01 0.01 0.00 0.00 0.00 0.00
0.24 0.37 0.59 0.84 0.93 0.96 0.93 0.84 0.73 0.68 0.65 0.60 0.56 0.53 0.49 0.46 0.45 0.49 0.51 0.53 0.57 0.61 0.53 0.49 0.47 0.42 0.37 0.30 0.22 0.15 0.07 0.04 0.02 0.01 0.01 0.00 0.00 0.00
0.25 0.30 0.44 0.65 0.79 0.86 0.85 0.80 0.74 0.71 0.69 0.65 0.61 0.57 0.52 0.50 0.46 0.43 0.45 0.50 0.51 0.53 0.49 0.39 0.38 0.41 0.40 0.39 0.34 0.24 0.12 0.07 0.05 0.03 0.01 0.01 0.00 0.00
0.29 0.29 0.36 0.51 0.65 0.76 0.77 0.72 0.72 0.71 0.70 0.66 0.63 0.59 0.52 0.50 0.49 0.44 0.42 0.43 0.42 0.42 0.46 0.45 0.42 0.42 0.41 0.38 0.32 0.27 0.18 0.10 0.06 0.05 0.03 0.01 0.01 0.00
0.35 0.32 0.35 0.46 0.55 0.64 0.64 0.61 0.63 0.68 0.66 0.63 0.59 0.57 0.53 0.50 0.49 0.48 0.42 0.41 0.41 0.42 0.49 0.55 0.52 0.43 0.38 0.35 0.30 0.28 0.25 0.16 0.08 0.04 0.02 0.02 0.01 0.01

GEFSNE_prec_meanprecacc_060.txt.gz
Total_Precipitation_Accumulation
0.31 0.40 0.42 0.39 0.40 0.41 0.45 0.55 0.62 0.53 0.53 0.64 0.76 0.84 0.94 0.95 0.96 0.84 0.67 0.64 0.56 0.48 0.41 0.37 0.37 0.40 0.45 0.47 0.48 0.50 0.53 0.56 0.65 0.83 1.07 1.29 1.49 1.66
0.39 0.45 0.51 0.51 0.51 0.51 0.52 0.60 0.73 0.71 0.66 0.67 0.75 0.76 0.76 0.61 0.63 0.64 0.60 0.61 0.53 0.46 0.42 0.38 0.35 0.34 0.36 0.38 0.40 0.40 0.40 0.39 0.39 0.43 0.50 0.62 0.79 1.05
0.38 0.44 0.48 0.55 0.62 0.63 0.68 0.70 0.73 0.83 0.78 0.66 0.77 0.86 0.77 0.60 0.50 0.51 0.52 0.53 0.50 0.48 0.44 0.41 0.37 0.34 0.32 0.32 0.34 0.35 0.35 0.34 0.33 0.32 0.33 0.35 0.36 0.40
0.36 0.46 0.50 0.51 0.57 0.64 0.76 0.79 0.81 0.93 0.92 0.78 0.85 0.94 0.85 0.74 0.60 0.53 0.44 0.43 0.44 0.47 0.45 0.44 0.42 0.37 0.32 0.29 0.27 0.26 0.25 0.25 0.26 0.25 0.24 0.23 0.25 0.25
0.33 0.42 0.50 0.58 0.61 0.65 0.74 0.78 0.85 1.00 1.04 0.96 0.95 1.06 1.09 0.88 0.66 0.51 0.42 0.42 0.39 0.42 0.44 0.44 0.43 0.39 0.34 0.30 0.27 0.22 0.18 0.18 0.18 0.18 0.18 0.19 0.21 0.22
0.35 0.39 0.43 0.55 0.64 0.68 0.76 0.87 0.95 1.04 1.12 1.10 1.13 1.24 1.24 1.10 0.84 0.57 0.48 0.45 0.42 0.38 0.40 0.40 0.40 0.38 0.34 0.30 0.27 0.22 0.18 0.15 0.14 0.13 0.12 0.12 0.13 0.14
0.26 0.33 0.34 0.39 0.49 0.61 0.68 0.79 0.96 1.11 1.27 1.33 1.34 1.50 1.45 1.25 0.99 0.70 0.58 0.52 0.48 0.44 0.40 0.35 0.33 0.30 0.29 0.28 0.27 0.24 0.19 0.15 0.12 0.11 0.10 0.10 0.09 0.09
0.22 0.28 0.29 0.29 0.32 0.38 0.48 0.62 0.77 0.94 1.15 1.33 1.46 1.56 1.61 1.47 1.26 1.02 0.71 0.52 0.48 0.48 0.45 0.42 0.38 0.35 0.31 0.27 0.27 0.25 0.22 0.17 0.13 0.11 0.10 0.10 0.09 0.08
0.23 0.26 0.21 0.18 0.26 0.30 0.34 0.42 0.52 0.63 0.79 1.00 1.20 1.31 1.48 1.60 1.46 1.17 0.89 0.68 0.55 0.52 0.49 0.44 0.41 0.41 0.38 0.34 0.35 0.29 0.26 0.22 0.17 0.13 0.11 0.10 0.09 0.08
0.24 0.27 0.27 0.25 0.27 0.32 0.37 0.36 0.37 0.40 0.48 0.59 0.76 1.00 1.21 1.42 1.46 1.35 1.25 1.00 0.77 0.63 0.56 0.49 0.40 0.36 0.37 0.36 0.36 0.31 0.28 0.27 0.24 0.19 0.15 0.12 0.11 0.09
0.26 0.30 0.34 0.31 0.25 0.22 0.30 0.32 0.32 0.31 0.32 0.40 0.53 0.75 1.00 1.18 1.35 1.34 1.24 1.10 0.89 0.67 0.53 0.46 0.39 0.35 0.33 0.29 0.29 0.31 0.29 0.30 0.29 0.25 0.20 0.16 0.13 0.11
0.38 0.40 0.37 0.31 0.27 0.19 0.25 0.30 0.28 0.28 0.31 0.31 0.38 0.51 0.66 0.91 1.11 1.13 1.04 0.96 0.85 0.67 0.48 0.40 0.35 0.32 0.33 0.26 0.21 0.21 0.23 0.28 0.31 0.30 0.26 0.20 0.15 0.09
0.42 0.43 0.44 0.35 0.27 0.21 0.21 0.27 0.24 0.28 0.35 0.37 0.39 0.47 0.59 0.73 0.93 1.02 1.00 0.87 0.75 0.61 0.47 0.39 0.35 0.29 0.24 0.20 0.18 0.18 0.18 0.19 0.21 0.25 0.27 0.25 0.18 0.10
0.52 0.55 0.56 0.44 0.35 0.29 0.23 0.21 0.21 0.23 0.34 0.39 0.41 0.43 0.50 0.59 0.75 0.96 1.07 0.99 0.82 0.70 0.63 0.53 0.40 0.32 0.23 0.15 0.14 0.16 0.19 0.19 0.17 0.18 0.20 0.26 0.22 0.15
0.54 0.66 0.66 0.53 0.47 0.42 0.33 0.25 0.23 0.23 0.30 0.37 0.35 0.37 0.41 0.50 0.66 0.92 1.13 1.24 1.12 0.91 0.79 0.67 0.55 0.44 0.33 0.21 0.14 0.12 0.14 0.18 0.18 0.16 0.16 0.16 0.16 0.13
0.50 0.62 0.69 0.69 0.65 0.59 0.49 0.37 0.28 0.28 0.30 0.36 0.40 0.43 0.51 0.59 0.69 0.76 0.96 1.12 1.17 1.07 0.90 0.77 0.65 0.58 0.48 0.32 0.18 0.13 0.10 0.12 0.13 0.13 0.14 0.14 0.13 0.11
0.56 0.72 0.87 0.91 0.93 0.86 0.73 0.59 0.47 0.43 0.39 0.41 0.49 0.53 0.57 0.60 0.64 0.67 0.78 0.91 0.90 0.87 0.83 0.79 0.75 0.67 0.62 0.50 0.31 0.18 0.11 0.07 0.08 0.09 0.09 0.11 0.11 0.10
0.44 0.69 0.96 1.06 1.09 1.08 0.97 0.80 0.66 0.58 0.53 0.52 0.54 0.56 0.55 0.59 0.62 0.67 0.70 0.78 0.79 0.74 0.72 0.69 0.69 0.69 0.64 0.62 0.45 0.27 0.15 0.08 0.06 0.06 0.07 0.08 0.08 0.08
0.30 0.51 0.79 1.00 1.09 1.13 1.07 0.90 0.74 0.68 0.69 0.64 0.61 0.59 0.57 0.56 0.61 0.66 0.68 0.72 0.77 0.74 0.67 0.65 0.60 0.58 0.55 0.49 0.42 0.30 0.20 0.11 0.08 0.06 0.06 0.06 0.06 0.05
0.25 0.39 0.63 0.89 0.99 1.05 1.02 0.95 0.84 0.80 0.78 0.73 0.68 0.64 0.60 0.57 0.56 0.59 0.61 0.63 0.67 0.74 0.67 0.60 0.54 0.47 0.43 0.39 0.35 0.29 0.21 0.15 0.10 0.07 0.06 0.06 0.05 0.06
0.32 0.37 0.51 0.72 0.86 0.94 0.94 0.90 0.85 0.83 0.81 0.79 0.75 0.71 0.65 0.63 0.59 0.55 0.57 0.62 0.65 0.67 0.61 0.48 0.44 0.49 0.52 0.53 0.50 0.40 0.27 0.19 0.15 0.09 0.07 0.05 0.04 0.04
0.38 0.38 0.43 0.58 0.72 0.84 0.85 0.82 0.83 0.82 0.82 0.80 0.76 0.72 0.65 0.62 0.62 0.58 0.57 0.58 0.56 0.56 0.59 0.59 0.56 0.54 0.54 0.50 0.45 0.43 0.32 0.22 0.16 0.14 0.11 0.07 0.03 0.02
0.45 0.41 0.43 0.53 0.63 0.73 0.74 0.72 0.73 0.79 0.78 0.75 0.72 0.70 0.66 0.62 0.62 0.61 0.57 0.57 0.58 0.59 0.67 0.73 0.68 0.56 0.50 0.49 0.45 0.43 0.39 0.28 0.18 0.12 0.08 0.06 0.05 0.03

GEFSNE_prec_meanprecacc_066.txt.gz
Total_Precipitation_Accumulation
0.31 0.41 0.42 0.39 0.40 0.41 0.45 0.56 0.62 0.53 0.53 0.64 0.76 0.85 0.95 0.96 0.96 0.85 0.68 0.67 0.60 0.53 0.47 0.43 0.42 0.47 0.53 0.55 0.56 0.60 0.64 0.67 0.74 0.90 1.12 1.34 1.53 1.70
0.39 0.45 0.51 0.51 0.51 0.51 0.52 0.60 0.73 0.71 0.66 0.67 0.75 0.76 0.76 0.62 0.64 0.64 0.61 0.62 0.55 0.49 0.45 0.42 0.39 0.40 0.41 0.45 0.48 0.48 0.48 0.46 0.46 0.48 0.55 0.66 0.83 1.09
0.38 0.44 0.48 0.55 0.62 0.63 0.68 0.70 0.73 0.84 0.78 0.66 0.77 0.86 0.78 0.60 0.51 0.51 0.53 0.53 0.51 0.49 0.46 0.43 0.40 0.38 0.38 0.37 0.41 0.43 0.41 0.41 0.38 0.36 0.36 0.39 0.38 0.42
0.36 0.46 0.50 0.51 0.57 0.64 0.76 0.79 0.81 0.93 0.92 0.78 0.85 0.94 0.85 0.74 0.61 0.53 0.44 0.43 0.44 0.48 0.47 0.47 0.45 0.41 0.37 0.35 0.34 0.33 0.33 0.32 0.32 0.29 0.27 0.26 0.26 0.27
0.34 0.42 0.50 0.58 0.61 0.65 0.75 0.79 0.85 1.00 1.04 0.96 0.96 1.06 1.09 0.88 0.66 0.51 0.42 0.42 0.39 0.43 0.45 0.47 0.46 0.43 0.38 0.35 0.34 0.30 0.27 0.26 0.23 0.22 0.23 0.22 0.23 0.23
0.35 0.39 0.43 0.55 0.64 0.68 0.76 0.88 0.96 1.04 1.12 1.10 1.13 1.24 1.24 1.10 0.84 0.57 0.48 0.45 0.43 0.39 0.42 0.42 0.43 0.41 0.37 0.33 0.31 0.30 0.28 0.27 0.24 0.19 0.17 0.17 0.17 0.17
0.26 0.33 0.34 0.39 0.49 0.61 0.69 0.79 0.96 1.12 1.27 1.33 1.34 1.50 1.45 1.25 0.99 0.70 0.58 0.52 0.49 0.46 0.43 0.37 0.35 0.32 0.31 0.30 0.30 0.29 0.28 0.25 0.23 0.21 0.17 0.14 0.13 0.13
0.22 0.28 0.29 0.29 0.32 0.38 0.48 0.62 0.77 0.94 1.15 1.33 1.46 1.56 1.61 1.47 1.26 1.02 0.71 0.53 0.48 0.50 0.48 0.46 0.42 0.38 0.33 0.29 0.30 0.28 0.28 0.26 0.22 0.19 0.17 0.16 0.14 0.13
0.23 0.26 0.21 0.18 0.26 0.30 0.35 0.42 0.52 0.64 0.79 1.00 1.20 1.31 1.49 1.60 1.46 1.17 0.89 0.69 0.55 0.53 0.51 0.48 0.47 0.45 0.41 0.37 0.39 0.33 0.29 0.28 0.25 0.21 0.18 0.16 0.15 0.14
0.24 0.27 0.27 0.25 0.27 0.32 0.37 0.36 0.37 0.40 0.48 0.59 0.76 1.00 1.21 1.42 1.46 1.35 1.25 1.00 0.77 0.63 0.57 0.50 0.44 0.42 0.43 0.41 0.40 0.36 0.33 0.31 0.29 0.27 0.24 0.21 0.19 0.16
0.26 0.30 0.34 0.31 0.26 0.22 0.30 0.33 0.32 0.31 0.32 0.40 0.53 0.75 1.00 1.18 1.35 1.34 1.24 1.10 0.89 0.67 0.54 0.48 0.41 0.39 0.39 0.36 0.36 0.37 0.34 0.34 0.34 0.32 0.29 0.27 0.26 0.23
0.38 0.40 0.37 0.31 0.27 0.19 0.25 0.30 0.29 0.28 0.31 0.32 0.38 0.51 0.66 0.91 1.11 1.13 1.04 0.96 0.85 0.67 0.50 0.43 0.38 0.37 0.39 0.31 0.26 0.27 0.28 0.33 0.37 0.37 0.35 0.33 0.30 0.22
0.42 0.43 0.44 0.35 0.27 0.21 0.21 0.27 0.25 0.28 0.35 0.38 0.39 0.47 0.59 0.73 0.93 1.02 1.00 0.87 0.75 0.61 0.48 0.43 0.39 0.35 0.31 0.26 0.23 0.23 0.22 0.22 0.25 0.31 0.37 0.40 0.38 0.26
0.53 0.55 0.56 0.44 0.35 0.29 0.23 0.21 0.21 0.23 0.34 0.39 0.41 0.43 0.50 0.59 0.75 0.96 1.07 0.99 0.82 0.70 0.63 0.55 0.44 0.38 0.30 0.21 0.20 0.22 0.24 0.25 0.23 0.22 0.27 0.40 0.44 0.42
0.55 0.66 0.66 0.53 0.47 0.42 0.33 0.25 0.23 0.23 0.30 0.37 0.35 0.37 0.41 0.50 0.66 0.92 1.13 1.24 1.12 0.91 0.79 0.67 0.56 0.48 0.40 0.28 0.19 0.17 0.20 0.23 0.23 0.22 0.23 0.27 0.33 0.37
0.51 0.62 0.69 0.69 0.65 0.59 0.49 0.37 0.28 0.28 0.30 0.36 0.40 0.43 0.51 0.59 0.69 0.76 0.96 1.12 1.18 1.07 0.90 0.77 0.65 0.60 0.51 0.38 0.26 0.19 0.16 0.18 0.20 0.21 0.23 0.25 0.29 0.34
0.56 0.73 0.87 0.91 0.93 0.86 0.73 0.59 0.47 0.43 0.39 0.41 0.49 0.53 0.57 0.60 0.64 0.67 0.78 0.91 0.91 0.88 0.83 0.80 0.76 0.68 0.65 0.55 0.37 0.24 0.18 0.15 0.15 0.17 0.21 0.26 0.29 0.33
0.44 0.69 0.96 1.06 1.09 1.08 0.97 0.80 0.67 0.59 0.54 0.52 0.55 0.57 0.56 0.59 0.63 0.67 0.71 0.79 0.79 0.74 0.73 0.70 0.72 0.72 0.67 0.65 0.51 0.33 0.23 0.18 0.14 0.15 0.18 0.23 0.26 0.29
0.30 0.51 0.79 1.00 1.09 1.13 1.07 0.90 0.74 0.69 0.70 0.65 0.62 0.60 0.58 0.57 0.62 0.67 0.69 0.73 0.77 0.74 0.69 0.67 0.64 0.61 0.57 0.50 0.45 0.35 0.27 0.22 0.19 0.17 0.17 0.18 0.20 0.21
0.26 0.40 0.64 0.90 1.00 1.05 1.03 0.97 0.85 0.81 0.79 0.74 0.69 0.65 0.61 0.59 0.57 0.59 0.62 0.64 0.68 0.75 0.69 0.62 0.57 0.50 0.44 0.40 0.37 0.34 0.28 0.27 0.24 0.21 0.18 0.18 0.21 0.25
0.34 0.38 0.52 0.73 0.87 0.95 0.95 0.92 0.86 0.84 0.83 0.81 0.76 0.72 0.67 0.66 0.61 0.56 0.59 0.64 0.66 0.69 0.63 0.49 0.46 0.53 0.58 0.58 0.53 0.44 0.33 0.30 0.34 0.30 0.22 0.18 0.20 0.22
0.41 0.41 0.46 0.60 0.75 0.85 0.87 0.83 0.84 0.83 0.83 0.81 0.77 0.73 0.67 0.64 0.64 0.62 0.60 0.61 0.57 0.57 0.61 0.61 0.61 0.62 0.61 0.54 0.48 0.47 0.40 0.33 0.36 0.43 0.36 0.25 0.16 0.14
0.48 0.43 0.45 0.55 0.65 0.75 0.75 0.73 0.74 0.80 0.79 0.76 0.73 0.72 0.68 0.64 0.64 0.65 0.61 0.62 0.62 0.62 0.70 0.76 0.73 0.63 0.56 0.54 0.50 0.49 0.48 0.41 0.35 0.33 0.30 0.27 0.22 0.18

GEFSNE_prec_meanprecacc_072.txt.gz
Total_Precipitation_Accumulation
0.31 0.41 0.42 0.39 0.40 0.41 0.45 0.56 0.62 0.54 0.53 0.64 0.76 0.85 0.95 0.96 0.96 0.85 0.68 0.67 0.61 0.55 0.50 0.46 0.47 0.52 0.59 0.62 0.65 0.71 0.76 0.79 0.87 1.04 1.26 1.46 1.63 1.79
0.39 0.45 0.51 0.51 0.51 0.51 0.52 0.60 0.73 0.71 0.66 0.67 0.75 0.76 0.76 0.62 0.64 0.64 0.61 0.63 0.55 0.50 0.48 0.45 0.42 0.43 0.45 0.50 0.53 0.54 0.56 0.56 0.56 0.59 0.67 0.77 0.92 1.16
0.38 0.44 0.48 0.55 0.62 0.63 0.68 0.70 0.73 0.84 0.78 0.66 0.77 0.86 0.78 0.60 0.51 0.51 0.53 0.53 0.51 0.50 0.47 0.46 0.44 0.43 0.42 0.41 0.45 0.48 0.46 0.46 0.45 0.44 0.44 0.46 0.46 0.49
0.36 0.46 0.50 0.51 0.57 0.64 0.76 0.79 0.81 0.93 0.92 0.78 0.85 0.94 0.85 0.74 0.61 0.53 0.44 0.43 0.44 0.48 0.47 0.48 0.47 0.44 0.42 0.40 0.37 0.36 0.36 0.35 0.36 0.35 0.34 0.32 0.31 0.31
0.34 0.42 0.50 0.58 0.61 0.65 0.75 0.79 0.85 1.00 1.04 0.96 0.96 1.06 1.09 0.88 0.66 0.51 0.42 0.42 0.39 0.43 0.45 0.47 0.47 0.44 0.40 0.39 0.39 0.34 0.29 0.27 0.26 0.26 0.28 0.28 0.28 0.28
0.35 0.39 0.43 0.55 0.64 0.68 0.76 0.88 0.96 1.04 1.12 1.10 1.13 1.24 1.24 1.10 0.84 0.57 0.48 0.45 0.43 0.39 0.42 0.42 0.43 0.41 0.38 0.34 0.33 0.33 0.32 0.29 0.26 0.23 0.21 0.21 0.22 0.22
0.26 0.33 0.34 0.39 0.49 0.61 0.69 0.79 0.96 1.12 1.27 1.33 1.34 1.50 1.45 1.25 0.99 0.70 0.58 0.52 0.49 0.46 0.43 0.37 0.35 0.32 0.31 0.30 0.30 0.30 0.29 0.28 0.27 0.26 0.23 0.20 0.19 0.19
0.22 0.28 0.29 0.29 0.32 0.38 0.48 0.62 0.77 0.94 1.15 1.33 1.46 1.56 1.61 1.47 1.26 1.02 0.71 0.53 0.48 0.50 0.48 0.46 0.42 0.38 0.33 0.30 0.31 0.29 0.29 0.27 0.25 0.24 0.24 0.25 0.23 0.20
0.23 0.26 0.21 0.18 0.26 0.30 0.35 0.42 0.52 0.64 0.79 1.00 1.20 1.31 1.49 1.60 1.46 1.17 0.89 0.69 0.55 0.53 0.51 0.48 0.47 0.45 0.42 0.38 0.40 0.34 0.30 0.29 0.27 0.24 0.23 0.23 0.24 0.24
0.24 0.27 0.27 0.25 0.27 0.32 0.37 0.36 0.37 0.40 0.48 0.59 0.76 1.00 1.21 1.42 1.46 1.35 1.25 1.00 0.77 0.63 0.57 0.50 0.44 0.42 0.43 0.41 0.41 0.37 0.34 0.33 0.31 0.29 0.28 0.26 0.25 0.25
0.27 0.30 0.34 0.31 0.26 0.22 0.31 0.33 0.32 0.31 0.32 0.40 0.53 0.75 1.00 1.18 1.35 1.34 1.24 1.10 0.89 0.67 0.54 0.48 0.41 0.39 0.39 0.36 0.36 0.37 0.35 0.36 0.36 0.34 0.33 0.32 0.31 0.30
0.38 0.40 0.37 0.31 0.27 0.19 0.25 0.30 0.29 0.28 0.31 0.32 0.38 0.51 0.66 0.91 1.11 1.13 1.04 0.96 0.85 0.67 0.50 0.43 0.38 0.37 0.39 0.31 0.26 0.27 0.29 0.35 0.40 0.40 0.38 0.37 0.35 0.28
0.43 0.43 0.44 0.35 0.27 0.21 0.22 0.27 0.25 0.28 0.35 0.38 0.39 0.47 0.59 0.73 0.93 1.02 1.00 0.87 0.75 0.61 0.48 0.43 0.39 0.35 0.31 0.26 0.24 0.24 0.23 0.23 0.27 0.33 0.40 0.44 0.43 0.33
0.53 0.55 0.56 0.45 0.35 0.29 0.23 0.21 0.21 0.23 0.34 0.39 0.41 0.43 0.50 0.59 0.75 0.96 1.07 0.99 0.82 0.70 0.63 0.55 0.44 0.38 0.30 0.21 0.20 0.22 0.25 0.27 0.25 0.24 0.30 0.43 0.49 0.48
0.56 0.67 0.67 0.54 0.48 0.42 0.34 0.26 0.23 0.23 0.30 0.37 0.35 0.37 0.41 0.50 0.66 0.92 1.13 1.24 1.12 0.91 0.79 0.67 0.56 0.48 0.40 0.29 0.20 0.18 0.21 0.25 0.25 0.24 0.25 0.30 0.36 0.41
0.52 0.63 0.70 0.71 0.67 0.60 0.50 0.37 0.28 0.29 0.30 0.36 0.40 0.43 0.51 0.59 0.69 0.76 0.96 1.12 1.18 1.07 0.90 0.77 0.65 0.60 0.51 0.38 0.26 0.20 0.17 0.19 0.21 0.23 0.26 0.27 0.32 0.37
0.58 0.74 0.88 0.93 0.94 0.87 0.74 0.60 0.48 0.44 0.40 0.41 0.49 0.53 0.57 0.60 0.64 0.67 0.78 0.91 0.91 0.88 0.83 0.80 0.76 0.68 0.65 0.55 0.37 0.24 0.19 0.16 0.16 0.20 0.25 0.29 0.33 0.37
0.46 0.71 0.97 1.07 1.11 1.09 0.98 0.81 0.68 0.59 0.55 0.53 0.55 0.57 0.56 0.60 0.63 0.67 0.71 0.79 0.80 0.74 0.73 0.70 0.72 0.72 0.67 0.65 0.51 0.33 0.23 0.18 0.16 0.18 0.22 0.27 0.31 0.35
0.32 0.53 0.81 1.02 1.11 1.16 1.09 0.91 0.75 0.70 0.71 0.66 0.62 0.60 0.58 0.57 0.62 0.67 0.69 0.73 0.78 0.75 0.69 0.67 0.64 0.61 0.57 0.50 0.45 0.35 0.27 0.22 0.20 0.19 0.21 0.23 0.25 0.28
0.29 0.43 0.67 0.93 1.03 1.08 1.06 0.98 0.87 0.82 0.80 0.75 0.70 0.65 0.62 0.59 0.57 0.60 0.62 0.64 0.69 0.75 0.69 0.63 0.57 0.50 0.45 0.41 0.37 0.34 0.29 0.28 0.25 0.23 0.21 0.22 0.27 0.33
0.37 0.42 0.56 0.77 0.91 0.98 0.98 0.94 0.88 0.86 0.84 0.82 0.77 0.73 0.67 0.66 0.62 0.57 0.59 0.64 0.67 0.70 0.63 0.49 0.47 0.53 0.59 0.60 0.54 0.45 0.34 0.32 0.36 0.32 0.26 0.24 0.27 0.30
0.45 0.46 0.52 0.66 0.80 0.90 0.90 0.86 0.86 0.84 0.84 0.82 0.78 0.74 0.67 0.65 0.65 0.62 0.61 0.62 0.58 0.58 0.61 0.62 0.62 0.63 0.62 0.56 0.49 0.48 0.41 0.35 0.38 0.47 0.42 0.32 0.24 0.22
0.54 0.49 0.51 0.60 0.69 0.78 0.79 0.75 0.77 0.82 0.81 0.78 0.74 0.73 0.69 0.65 0.65 0.66 0.62 0.64 0.64 0.64 0.71 0.78 0.74 0.64 0.57 0.55 0.51 0.51 0.49 0.43 0.37 0.35 0.33 0.33 0.30 0.27

GEFSNE_prec_meanprecacc_078.txt.gz
Total_Precipitation_Accumulation
0.31 0.41 0.42 0.39 0.40 0.41 0.45 0.56 0.62 0.54 0.53 0.64 0.76 0.85 0.95 0.96 0.96 0.85 0.68 0.67 0.61 0.55 0.50 0.47 0.48 0.52 0.59 0.63 0.67 0.74 0.81 0.85 0.93 1.10 1.32 1.53 1.71 1.88
0.39 0.45 0.51 0.51 0.51 0.51 0.52 0.60 0.73 0.71 0.66 0.67 0.75 0.76 0.76 0.62 0.64 0.64 0.61 0.63 0.55 0.50 0.48 0.45 0.42 0.43 0.46 0.50 0.54 0.56 0.58 0.60 0.60 0.63 0.71 0.82 0.97 1.21
0.38 0.44 0.48 0.55 0.62 0.63 0.68 0.70 0.73 0.84 0.78 0.66 0.77 0.86 0.78 0.60 0.51 0.51 0.53 0.53 0.51 0.50 0.47 0.46 0.44 0.43 0.42 0.41 0.45 0.48 0.48 0.49 0.48 0.47 0.48 0.50 0.50 0.53
0.36 0.46 0.50 0.51 0.57 0.65 0.76 0.79 0.81 0.93 0.92 0.78 0.85 0.94 0.85 0.74 0.61 0.53 0.44 0.43 0.44 0.48 0.47 0.48 0.47 0.44 0.42 0.40 0.38 0.37 0.37 0.36 0.38 0.37 0.36 0.35 0.34 0.35
0.34 0.42 0.50 0.58 0.61 0.65 0.75 0.79 0.85 1.00 1.04 0.96 0.96 1.06 1.09 0.88 0.66 0.51 0.42 0.42 0.39 0.43 0.45 0.47 0.47 0.44 0.40 0.39 0.40 0.36 0.32 0.30 0.28 0.28 0.29 0.30 0.31 0.31
0.35 0.39 0.43 0.55 0.64 0.69 0.76 0.88 0.96 1.04 1.12 1.10 1.13 1.24 1.24 1.10 0.84 0.57 0.48 0.45 0.43 0.39 0.42 0.42 0.43 0.41 0.38 0.34 0.33 0.33 0.33 0.33 0.30 0.26 0.24 0.23 0.24 0.23
0.26 0.33 0.34 0.39 0.49 0.61 0.69 0.79 0.96 1.12 1.27 1.33 1.34 1.50 1.45 1.25 0.99 0.70 0.58 0.52 0.49 0.46 0.43 0.37 0.35 0.33 0.31 0.31 0.30 0.30 0.29 0.28 0.29 0.29 0.27 0.24 0.22 0.21
0.22 0.28 0.29 0.29 0.32 0.38 0.48 0.62 0.77 0.94 1.15 1.34 1.46 1.56 1.62 1.47 1.26 1.02 0.71 0.53 0.48 0.50 0.48 0.46 0.42 0.38 0.34 0.30 0.31 0.29 0.29 0.27 0.25 0.25 0.26 0.28 0.26 0.23
0.23 0.26 0.21 0.18 0.26 0.30 0.35 0.42 0.52 0.64 0.79 1.01 1.20 1.31 1.49 1.60 1.46 1.17 0.89 0.69 0.55 0.53 0.52 0.48 0.47 0.45 0.42 0.38 0.40 0.34 0.30 0.29 0.27 0.24 0.24 0.24 0.26 0.26
0.24 0.27 0.27 0.25 0.27 0.33 0.37 0.37 0.37 0.40 0.48 0.59 0.76 1.00 1.21 1.42 1.47 1.36 1.26 1.01 0.78 0.63 0.57 0.50 0.44 0.42 0.43 0.41 0.41 0.37 0.34 0.33 0.31 0.30 0.28 0.27 0.26 0.26
0.27 0.31 0.35 0.32 0.26 0.23 0.31 0.33 0.32 0.32 0.32 0.40 0.53 0.75 1.00 1.18 1.35 1.34 1.24 1.10 0.90 0.67 0.55 0.48 0.41 0.39 0.39 0.36 0.36 0.37 0.35 0.36 0.36 0.34 0.33 0.32 0.31 0.30
0.39 0.41 0.38 0.32 0.28 0.20 0.26 0.31 0.29 0.29 0.32 0.33 0.39 0.51 0.66 0.91 1.11 1.13 1.04 0.97 0.86 0.67 0.50 0.44 0.38 0.38 0.40 0.31 0.26 0.27 0.29 0.35 0.40 0.40 0.39 0.37 0.36 0.29
0.44 0.44 0.45 0.36 0.28 0.22 0.23 0.28 0.25 0.29 0.37 0.40 0.40 0.48 0.59 0.74 0.93 1.02 1.01 0.87 0.76 0.62 0.48 0.44 0.40 0.36 0.32 0.27 0.24 0.24 0.24 0.24 0.28 0.34 0.40 0.45 0.43 0.34
0.53 0.56 0.56 0.46 0.36 0.30 0.24 0.22 0.22 0.24 0.35 0.40 0.43 0.45 0.51 0.59 0.75 0.97 1.07 1.00 0.83 0.70 0.64 0.56 0.45 0.39 0.31 0.23 0.21 0.22 0.26 0.27 0.25 0.25 0.31 0.44 0.50 0.49
0.57 0.68 0.68 0.55 0.50 0.44 0.35 0.27 0.25 0.24 0.31 0.39 0.37 0.39 0.43 0.52 0.67 0.93 1.15 1.26 1.13 0.91 0.80 0.68 0.57 0.50 0.42 0.30 0.21 0.18 0.22 0.26 0.26 0.25 0.26 0.31 0.37 0.42
0.53 0.65 0.71 0.72 0.68 0.61 0.51 0.39 0.30 0.30 0.32 0.38 0.42 0.45 0.53 0.61 0.71 0.77 0.97 1.14 1.19 1.08 0.90 0.78 0.66 0.61 0.53 0.39 0.27 0.20 0.17 0.19 0.22 0.25 0.28 0.29 0.33 0.39
0.59 0.76 0.90 0.95 0.97 0.91 0.77 0.63 0.52 0.47 0.43 0.44 0.52 0.56 0.61 0.63 0.66 0.69 0.80 0.92 0.92 0.88 0.84 0.81 0.78 0.70 0.67 0.57 0.38 0.25 0.19 0.16 0.17 0.22 0.27 0.31 0.35 0.39
0.46 0.71 0.98 1.09 1.13 1.12 1.02 0.85 0.73 0.64 0.59 0.57 0.60 0.61 0.60 0.64 0.67 0.71 0.74 0.81 0.81 0.75 0.74 0.72 0.76 0.76 0.70 0.67 0.52 0.34 0.24 0.19 0.17 0.20 0.24 0.29 0.32 0.36
0.32 0.53 0.82 1.04 1.13 1.18 1.13 0.96 0.80 0.75 0.77 0.72 0.68 0.66 0.63 0.62 0.67 0.72 0.73 0.77 0.80 0.76 0.70 0.70 0.68 0.66 0.60 0.52 0.47 0.36 0.28 0.24 0.23 0.22 0.23 0.25 0.26 0.29
0.29 0.44 0.69 0.95 1.06 1.12 1.10 1.04 0.93 0.89 0.87 0.82 0.76 0.72 0.68 0.65 0.63 0.65 0.67 0.69 0.72 0.78 0.71 0.65 0.59 0.53 0.48 0.45 0.41 0.38 0.31 0.30 0.30 0.27 0.25 0.26 0.29 0.35
0.38 0.44 0.59 0.81 0.96 1.04 1.04 1.01 0.96 0.93 0.92 0.90 0.84 0.79 0.73 0.71 0.67 0.61 0.64 0.69 0.71 0.74 0.67 0.52 0.50 0.55 0.63 0.65 0.58 0.46 0.37 0.34 0.39 0.37 0.32 0.31 0.33 0.36
0.48 0.49 0.56 0.71 0.87 0.97 0.98 0.95 0.96 0.94 0.93 0.91 0.87 0.83 0.75 0.72 0.71 0.68 0.67 0.68 0.64 0.62 0.65 0.65 0.66 0.68 0.66 0.59 0.51 0.50 0.45 0.40 0.43 0.49 0.44 0.37 0.31 0.29
0.58 0.55 0.58 0.69 0.78 0.88 0.89 0.86 0.88 0.93 0.92 0.89 0.86 0.84 0.79 0.75 0.74 0.73 0.70 0.71 0.70 0.70 0.77 0.83 0.79 0.69 0.61 0.59 0.54 0.53 0.53 0.48 0.45 0.42 0.37 0.35 0.31 0.28

GEFSNE_prec_meanprecacc_084.txt.gz
Total_Precipitation_Accumulation
0.32 0.41 0.42 0.39 0.40 0.41 0.45 0.56 0.62 0.54 0.54 0.64 0.76 0.85 0.95 0.96 0.96 0.85 0.68 0.68 0.61 0.55 0.50 0.47 0.48 0.53 0.60 0.64 0.68 0.76 0.83 0.88 0.97 1.14 1.37 1.60 1.80 1.97
0.39 0.45 0.51 0.51 0.51 0.51 0.52 0.60 0.73 0.71 0.66 0.67 0.75 0.76 0.76 0.62 0.64 0.64 0.61 0.63 0.55 0.50 0.48 0.45 0.42 0.43 0.46 0.51 0.54 0.56 0.59 0.61 0.62 0.66 0.73 0.85 1.00 1.25
0.38 0.44 0.48 0.55 0.62 0.63 0.68 0.70 0.73 0.84 0.78 0.66 0.77 0.86 0.78 0.60 0.51 0.51 0.53 0.53 0.51 0.50 0.47 0.46 0.44 0.43 0.42 0.41 0.45 0.48 0.48 0.49 0.49 0.48 0.49 0.52 0.51 0.55
0.36 0.46 0.50 0.52 0.58 0.65 0.76 0.79 0.81 0.93 0.93 0.78 0.85 0.94 0.86 0.74 0.61 0.53 0.44 0.43 0.44 0.48 0.47 0.48 0.47 0.44 0.42 0.40 0.38 0.37 0.37 0.36 0.38 0.37 0.36 0.35 0.35 0.36
0.34 0.42 0.50 0.58 0.61 0.65 0.75 0.79 0.85 1.00 1.05 0.96 0.96 1.06 1.09 0.88 0.66 0.51 0.42 0.42 0.39 0.43 0.45 0.47 0.47 0.44 0.40 0.39 0.40 0.36 0.32 0.30 0.28 0.28 0.29 0.30 0.31 0.32
0.35 0.39 0.43 0.55 0.64 0.69 0.76 0.88 0.96 1.04 1.12 1.10 1.13 1.24 1.24 1.10 0.85 0.57 0.48 0.45 0.43 0.39 0.42 0.42 0.43 0.41 0.38 0.34 0.33 0.33 0.33 0.33 0.30 0.26 0.24 0.23 0.24 0.24
0.26 0.33 0.34 0.40 0.49 0.61 0.69 0.80 0.97 1.12 1.28 1.33 1.34 1.50 1.46 1.26 0.99 0.70 0.58 0.52 0.49 0.46 0.43 0.37 0.35 0.33 0.31 0.31 0.30 0.30 0.29 0.28 0.29 0.29 0.27 0.24 0.22 0.22
0.23 0.29 0.30 0.30 0.33 0.38 0.49 0.63 0.78 0.95 1.16 1.34 1.47 1.56 1.62 1.48 1.27 1.02 0.71 0.53 0.49 0.50 0.48 0.46 0.42 0.38 0.34 0.30 0.31 0.29 0.29 0.27 0.25 0.25 0.26 0.28 0.27 0.23
0.23 0.27 0.22 0.18 0.26 0.31 0.36 0.43 0.53 0.64 0.80 1.01 1.21 1.31 1.49 1.60 1.47 1.18 0.90 0.70 0.56 0.53 0.52 0.48 0.47 0.45 0.42 0.38 0.40 0.34 0.30 0.29 0.27 0.24 0.24 0.24 0.26 0.27
0.25 0.28 0.28 0.26 0.28 0.34 0.40 0.39 0.39 0.42 0.49 0.60 0.77 1.00 1.21 1.43 1.48 1.37 1.27 1.02 0.79 0.63 0.58 0.50 0.44 0.42 0.43 0.41 0.41 0.37 0.34 0.33 0.31 0.30 0.28 0.27 0.26 0.26
0.27 0.32 0.36 0.33 0.28 0.25 0.33 0.35 0.35 0.34 0.34 0.42 0.55 0.76 1.01 1.19 1.36 1.35 1.25 1.11 0.90 0.67 0.55 0.48 0.41 0.39 0.39 0.36 0.36 0.37 0.35 0.36 0.36 0.34 0.33 0.32 0.31 0.31
0.40 0.43 0.40 0.33 0.30 0.23 0.28 0.34 0.32 0.31 0.36 0.37 0.43 0.54 0.67 0.92 1.12 1.13 1.05 0.97 0.86 0.67 0.50 0.44 0.39 0.38 0.40 0.31 0.26 0.27 0.29 0.35 0.40 0.40 0.39 0.37 0.36 0.29
0.45 0.46 0.47 0.39 0.30 0.23 0.24 0.30 0.28 0.32 0.43 0.46 0.47 0.54 0.65 0.78 0.95 1.04 1.01 0.88 0.77 0.62 0.48 0.44 0.40 0.36 0.32 0.27 0.24 0.24 0.24 0.24 0.28 0.34 0.40 0.45 0.43 0.34
0.54 0.56 0.57 0.47 0.38 0.31 0.25 0.23 0.24 0.26 0.37 0.44 0.47 0.49 0.55 0.64 0.79 1.00 1.11 1.03 0.85 0.71 0.65 0.58 0.47 0.41 0.33 0.24 0.21 0.22 0.26 0.27 0.25 0.26 0.31 0.45 0.50 0.49
0.57 0.68 0.69 0.56 0.50 0.44 0.36 0.29 0.27 0.27 0.34 0.42 0.40 0.42 0.46 0.55 0.72 1.01 1.24 1.36 1.22 0.95 0.82 0.71 0.60 0.52 0.44 0.31 0.21 0.19 0.22 0.26 0.26 0.26 0.27 0.33 0.39 0.44
0.54 0.65 0.72 0.72 0.68 0.62 0.52 0.40 0.31 0.31 0.34 0.40 0.45 0.48 0.57 0.66 0.77 0.84 1.05 1.24 1.29 1.15 0.95 0.82 0.71 0.66 0.57 0.42 0.29 0.21 0.18 0.19 0.22 0.25 0.29 0.30 0.35 0.41
0.59 0.76 0.90 0.95 0.97 0.91 0.78 0.65 0.54 0.50 0.46 0.47 0.56 0.61 0.66 0.69 0.72 0.76 0.89 1.03 1.03 0.97 0.91 0.88 0.85 0.78 0.73 0.63 0.43 0.27 0.21 0.17 0.18 0.23 0.29 0.33 0.35 0.40
0.46 0.71 0.99 1.09 1.13 1.12 1.03 0.87 0.75 0.68 0.64 0.64 0.67 0.69 0.69 0.73 0.77 0.81 0.86 0.95 0.94 0.86 0.83 0.81 0.87 0.90 0.83 0.75 0.57 0.37 0.26 0.20 0.18 0.22 0.27 0.31 0.33 0.37
0.33 0.54 0.83 1.05 1.15 1.20 1.14 0.98 0.83 0.79 0.82 0.79 0.76 0.75 0.74 0.74 0.80 0.85 0.86 0.90 0.92 0.87 0.80 0.80 0.81 0.81 0.74 0.60 0.51 0.39 0.31 0.26 0.26 0.25 0.26 0.27 0.28 0.30
0.30 0.45 0.70 0.97 1.08 1.14 1.12 1.07 0.96 0.93 0.93 0.89 0.85 0.82 0.80 0.79 0.77 0.79 0.82 0.83 0.85 0.90 0.83 0.77 0.72 0.67 0.61 0.55 0.51 0.46 0.37 0.36 0.35 0.32 0.28 0.29 0.32 0.37
0.39 0.45 0.60 0.82 0.97 1.06 1.07 1.05 1.01 0.99 0.99 0.98 0.94 0.90 0.86 0.86 0.81 0.75 0.79 0.84 0.87 0.90 0.81 0.63 0.58 0.66 0.75 0.80 0.70 0.54 0.42 0.39 0.43 0.42 0.37 0.36 0.37 0.40
0.49 0.51 0.58 0.74 0.90 1.01 1.04 1.02 1.04 1.03 1.04 1.03 1.00 0.95 0.89 0.87 0.87 0.84 0.84 0.85 0.80 0.77 0.78 0.76 0.79 0.83 0.81 0.73 0.61 0.57 0.51 0.46 0.49 0.52 0.47 0.39 0.34 0.32
0.60 0.57 0.61 0.72 0.83 0.94 0.96 0.95 0.98 1.04 1.04 1.03 1.01 0.99 0.95 0.92 0.92 0.92 0.87 0.89 0.88 0.87 0.93 0.97 0.94 0.86 0.77 0.72 0.65 0.61 0.60 0.55 0.53 0.50 0.42 0.37 0.31 0.29

GEFSNE_prec_meanprecacc_090.txt.gz
Total_Precipitation_Accumulation
0.32 0.41 0.42 0.39 0.40 0.41 0.45 0.56 0.62 0.54 0.54 0.64 0.76 0.85 0.95 0.96 0.96 0.85 0.68 0.68 0.61 0.55 0.50 0.47 0.48 0.53 0.60 0.64 0.69 0.76 0.83 0.88 0.97 1.15 1.39 1.63 1.84 2.03
0.39 0.45 0.51 0.51 0.51 0.51 0.52 0.60 0.73 0.71 0.66 0.67 0.75 0.76 0.76 0.62 0.64 0.64 0.61 0.63 0.55 0.50 0.48 0.45 0.42 0.43 0.46 0.51 0.54 0.56 0.59 0.61 0.62 0.66 0.74 0.86 1.01 1.27
0.38 0.44 0.48 0.55 0.62 0.63 0.68 0.70 0.73 0.84 0.78 0.66 0.77 0.86 0.78 0.60 0.51 0.51 0.53 0.53 0.51 0.50 0.47 0.46 0.44 0.43 0.42 0.41 0.45 0.49 0.48 0.49 0.49 0.48 0.49 0.52 0.52 0.56
0.36 0.46 0.50 0.52 0.58 0.65 0.76 0.79 0.81 0.93 0.93 0.78 0.85 0.94 0.86 0.74 0.61 0.53 0.44 0.43 0.44 0.48 0.47 0.48 0.47 0.44 0.42 0.40 0.38 0.37 0.37 0.36 0.38 0.37 0.36 0.35 0.35 0.36
0.34 0.42 0.50 0.58 0.61 0.65 0.75 0.79 0.85 1.00 1.05 0.96 0.96 1.06 1.09 0.88 0.66 0.51 0.42 0.42 0.39 0.43 0.45 0.47 0.47 0.44 0.40 0.39 0.40 0.36 0.32 0.30 0.28 0.28 0.29 0.30 0.31 0.32
0.36 0.39 0.43 0.55 0.64 0.69 0.77 0.88 0.96 1.05 1.12 1.10 1.13 1.24 1.24 1.10 0.85 0.58 0.48 0.45 0.43 0.39 0.42 0.42 0.43 0.41 0.38 0.34 0.33 0.33 0.33 0.33 0.30 0.26 0.24 0.23 0.24 0.24
0.27 0.34 0.35 0.40 0.50 0.62 0.70 0.81 0.98 1.13 1.28 1.34 1.35 1.50 1.46 1.26 0.99 0.70 0.58 0.52 0.49 0.46 0.43 0.37 0.35 0.33 0.31 0.31 0.30 0.30 0.29 0.28 0.29 0.29 0.27 0.24 0.22 0.22
0.25 0.31 0.32 0.31 0.34 0.40 0.50 0.64 0.79 0.96 1.16 1.35 1.47 1.57 1.62 1.48 1.28 1.03 0.72 0.53 0.49 0.50 0.48 0.46 0.42 0.38 0.34 0.30 0.31 0.29 0.29 0.27 0.25 0.25 0.26 0.28 0.27 0.23
0.27 0.30 0.25 0.21 0.28 0.32 0.37 0.44 0.54 0.65 0.81 1.02 1.22 1.32 1.49 1.61 1.48 1.19 0.91 0.70 0.56 0.54 0.52 0.48 0.47 0.45 0.42 0.38 0.40 0.34 0.30 0.29 0.27 0.24 0.24 0.24 0.26 0.27
0.28 0.30 0.30 0.27 0.30 0.36 0.41 0.40 0.40 0.43 0.51 0.63 0.78 1.02 1.22 1.44 1.49 1.38 1.28 1.03 0.79 0.63 0.58 0.51 0.44 0.42 0.43 0.41 0.41 0.37 0.34 0.33 0.31 0.30 0.28 0.27 0.26 0.26
0.32 0.35 0.39 0.35 0.30 0.27 0.35 0.36 0.35 0.35 0.35 0.43 0.56 0.77 1.02 1.20 1.38 1.38 1.27 1.13 0.91 0.68 0.55 0.49 0.41 0.40 0.39 0.36 0.36 0.37 0.35 0.36 0.36 0.34 0.33 0.32 0.31 0.31
0.43 0.45 0.42 0.34 0.31 0.23 0.29 0.34 0.33 0.32 0.37 0.38 0.45 0.55 0.69 0.93 1.14 1.17 1.08 1.01 0.88 0.68 0.50 0.45 0.39 0.38 0.40 0.32 0.26 0.27 0.29 0.35 0.40 0.40 0.39 0.37 0.36 0.29
0.48 0.48 0.49 0.40 0.31 0.24 0.25 0.31 0.28 0.32 0.43 0.47 0.48 0.55 0.66 0.79 0.97 1.06 1.05 0.92 0.80 0.65 0.49 0.46 0.42 0.38 0.34 0.28 0.24 0.24 0.24 0.24 0.28 0.34 0.40 0.45 0.43 0.34
0.56 0.58 0.59 0.49 0.39 0.32 0.26 0.24 0.24 0.27 0.38 0.44 0.47 0.49 0.56 0.65 0.81 1.03 1.14 1.06 0.87 0.73 0.67 0.61 0.50 0.44 0.35 0.25 0.22 0.23 0.26 0.27 0.26 0.26 0.32 0.45 0.50 0.49
0.57 0.69 0.69 0.56 0.50 0.45 0.36 0.29 0.27 0.27 0.34 0.42 0.41 0.42 0.47 0.56 0.74 1.04 1.28 1.41 1.27 1.00 0.86 0.76 0.66 0.57 0.49 0.35 0.23 0.20 0.23 0.27 0.27 0.26 0.27 0.33 0.39 0.44
0.54 0.65 0.72 0.72 0.68 0.62 0.52 0.40 0.31 0.32 0.34 0.40 0.45 0.49 0.58 0.67 0.79 0.87 1.09 1.29 1.35 1.19 0.98 0.87 0.77 0.73 0.63 0.47 0.33 0.24 0.20 0.21 0.24 0.27 0.30 0.31 0.35 0.41
0.59 0.76 0.90 0.95 0.97 0.91 0.78 0.65 0.54 0.50 0.46 0.47 0.57 0.61 0.67 0.70 0.73 0.78 0.93 1.07 1.08 1.01 0.94 0.92 0.92 0.88 0.83 0.72 0.51 0.32 0.24 0.20 0.20 0.26 0.33 0.35 0.37 0.41
0.46 0.71 0.99 1.09 1.13 1.12 1.03 0.87 0.75 0.68 0.65 0.64 0.68 0.70 0.71 0.75 0.79 0.84 0.91 1.00 0.99 0.90 0.87 0.85 0.94 1.00 0.94 0.85 0.65 0.45 0.32 0.25 0.22 0.26 0.32 0.35 0.35 0.39
0.33 0.54 0.83 1.05 1.15 1.20 1.15 0.99 0.83 0.79 0.83 0.79 0.77 0.76 0.75 0.76 0.83 0.88 0.90 0.95 0.98 0.92 0.85 0.86 0.90 0.93 0.84 0.68 0.56 0.47 0.39 0.33 0.33 0.32 0.32 0.32 0.31 0.31
0.30 0.46 0.70 0.97 1.08 1.14 1.13 1.07 0.97 0.94 0.94 0.90 0.86 0.83 0.82 0.81 0.80 0.82 0.85 0.88 0.90 0.95 0.88 0.82 0.80 0.76 0.70 0.62 0.57 0.52 0.46 0.45 0.43 0.39 0.33 0.34 0.36 0.40
0.39 0.45 0.60 0.82 0.98 1.06 1.08 1.06 1.02 1.00 1.00 0.99 0.95 0.92 0.89 0.90 0.85 0.80 0.83 0.90 0.93 0.96 0.86 0.68 0.65 0.76 0.88 0.93 0.80 0.59 0.48 0.46 0.50 0.50 0.44 0.43 0.42 0.43
0.50 0.51 0.59 0.74 0.90 1.02 1.05 1.03 1.05 1.05 1.06 1.05 1.02 0.98 0.93 0.93 0.93 0.91 0.90 0.92 0.87 0.85 0.85 0.82 0.87 0.95 0.95 0.87 0.72 0.64 0.57 0.52 0.56 0.60 0.54 0.46 0.40 0.36
0.61 0.58 0.62 0.73 0.84 0.95 0.98 0.96 0.99 1.07 1.07 1.06 1.04 1.03 1.00 0.97 0.97 0.98 0.94 0.97 0.97 0.96 1.02 1.07 1.05 0.97 0.88 0.83 0.74 0.69 0.66 0.61 0.61 0.58 0.47 0.41 0.36 0.32